GFSNGP_850_thetae_066.txt.gz
Theta_e
319 318 318 318 318 319 320 320 320 321 321 320 321 321 321 319 317 317 318 318 321 326 328 328 328 326 325 325 326 326 325 324 322 321 320 319 316 314 311 309 306 306 304 303
320 319 318 318 319 319 320 320 321 321 321 320 320 319 318 318 317 319 321 321 321 323 326 325 324 323 324 323 322 321 321 320 319 317 315 312 311 309 307 306 305 303 303 302
321 319 320 321 320 320 321 321 321 321 320 320 320 320 318 318 318 320 320 320 321 321 321 320 322 321 320 320 319 317 317 316 314 312 310 308 308 307 305 303 303 302 300 297
322 319 328 320 319 320 321 321 321 321 320 320 319 318 316 315 319 317 317 316 316 316 316 316 316 317 316 313 312 313 312 311 309 308 307 306 304 303 303 301 300 299 298 296
327 322 320 320 316 319 320 321 321 321 320 318 316 314 314 312 315 315 313 312 312 312 312 312 311 310 310 311 313 312 309 308 307 306 304 302 303 302 300 299 297 296 294 293
320 323 330 321 319 318 319 321 320 319 319 318 315 320 319 311 310 309 309 309 309 310 310 310 308 308 311 309 308 307 304 302 301 300 302 302 299 297 296 294 293 292 291 290
323 327 323 320 315 315 320 323 320 318 318 317 318 318 314 309 307 307 306 307 307 307 307 307 306 306 305 303 302 301 300 300 300 301 298 297 295 293 292 292 291 290 290 289
321 328 327 315 313 319 322 319 318 317 317 317 315 310 308 307 306 305 304 304 304 304 304 304 304 304 302 301 299 299 299 301 299 296 294 292 291 291 291 290 289 287 286 285
322 323 321 315 319 317 317 319 316 317 316 316 310 308 306 305 304 304 303 303 302 302 301 301 300 300 298 297 299 300 297 295 293 291 291 291 290 288 287 286 286 286 286 286
320 320 319 318 316 315 315 315 315 314 315 313 310 307 306 304 303 303 302 301 300 299 298 297 297 297 299 299 296 294 292 291 291 290 289 288 286 286 285 284 284 284 285 285
320 320 317 317 317 318 315 313 313 312 313 311 309 306 305 304 302 301 300 299 298 297 296 296 298 299 298 295 293 292 291 290 288 287 286 285 284 284 283 283 282 281 282 281
323 321 320 320 318 318 316 315 313 312 311 310 307 306 304 303 301 299 298 297 296 295 297 298 298 296 293 292 291 289 288 287 286 285 284 283 283 283 282 281 280 279 279 278
319 315 316 316 316 316 315 313 312 311 310 308 306 304 302 301 299 298 297 296 295 297 298 296 293 292 291 289 288 287 286 285 285 283 282 282 281 281 282 281 280 279 279 278
313 313 314 313 313 312 311 310 309 307 306 305 303 301 300 299 296 296 296 294 297 297 294 293 291 289 287 287 286 285 284 283 282 282 281 280 280 279 279 279 279 279 278 277
311 312 311 311 310 308 307 307 305 302 301 300 300 299 297 296 296 294 291 292 292 293 291 289 287 286 286 285 284 283 283 282 281 280 280 279 279 278 278 277 278 277 277 276
307 307 307 307 305 303 303 303 302 300 300 298 297 296 295 294 291 289 289 290 292 289 287 286 286 285 284 283 282 282 281 280 280 279 279 278 278 277 277 276 276 276 275 275
307 306 304 303 302 301 302 301 300 299 297 296 295 293 291 288 288 291 293 292 289 286 285 285 285 284 283 282 281 280 280 279 279 278 278 277 277 276 276 275 275 274 274 273
307 307 305 304 302 299 298 297 296 296 295 293 294 293 293 293 293 292 291 286 286 288 286 284 283 282 281 280 280 279 279 278 277 277 277 276 276 275 275 274 273 273 272 272
307 305 304 302 301 301 299 297 295 295 294 293 293 293 293 293 291 288 288 288 286 284 283 282 281 280 280 279 278 278 277 277 276 276 276 275 274 274 273 273 273 272 271 271
299 301 300 298 298 299 298 296 294 294 294 294 293 292 289 288 288 289 287 284 282 282 281 280 279 279 278 278 277 277 276 276 275 274 274 274 273 273 272 272 272 270 270 269
296 298 297 297 296 295 295 294 294 293 292 291 291 289 289 289 288 285 282 282 281 280 279 279 278 277 277 276 276 275 275 274 273 273 272 271 271 270 270 269 269 269 269 269
295 296 295 294 294 293 293 293 293 291 290 289 289 289 288 285 283 282 281 280 280 279 278 277 277 276 276 275 274 273 272 271 270 270 269 268 268 268 268 268 269 269 269 268
293 293 293 293 293 292 291 291 290 289 289 287 285 283 283 282 281 280 279 279 278 278 277 276 276 275 274 273 272 271 270 270 269 268 268 267 267 266 267 267 268 268 268 268
291 292 291 290 289 289 287 284 284 283 283 282 282 281 280 280 280 279 278 278 277 277 276 275 274 273 272 272 271 270 269 268 267 267 266 267 266 265 266 266 267 267 267 267
290 289 289 288 288 284 285 284 283 282 282 282 281 281 280 279 279 279 278 278 276 275 274 274 273 272 271 270 269 268 267 266 266 268 266 265 265 265 265 265 266 267 267 267
288 286 285 284 283 282 282 283 283 281 280 281 281 280 280 279 278 277 276 275 274 273 272 272 271 270 269 268 267 267 266 266 265 265 266 266 265 265 266 266 266 266 267 267
285 284 283 282 282 281 281 280 280 279 280 279 277 278 277 276 276 275 274 273 272 271 270 269 268 268 268 267 266 265 265 264 264 266 266 266 266 265 266 266 266 266 266 266

GFSNGP_850_thetae_072.txt.gz
Theta_e
321 321 321 321 322 322 322 323 325 327 323 322 322 321 322 321 322 322 321 321 321 322 327 329 329 329 329 330 330 330 329 329 328 327 326 323 321 320 319 318 315 313 311 309
323 321 321 321 322 322 321 321 321 322 322 321 320 320 321 320 320 321 321 323 322 321 328 331 332 331 330 329 329 328 328 327 326 325 323 320 319 318 316 313 311 310 308 306
323 322 320 320 321 321 320 321 320 321 322 321 322 321 321 320 320 320 322 324 323 323 331 331 331 330 329 326 325 324 324 324 323 320 319 317 315 312 311 310 309 307 305 304
324 322 324 321 321 321 321 320 320 320 321 321 321 320 320 321 320 321 323 324 324 328 329 328 327 326 323 320 320 320 320 319 318 317 314 312 311 310 309 307 305 304 302 301
324 324 322 321 321 321 321 321 321 320 321 321 320 321 321 320 319 321 322 323 325 325 325 323 323 321 318 316 315 314 314 313 311 310 310 309 308 307 305 303 302 301 300 298
325 324 325 323 321 320 321 322 321 321 322 322 321 324 322 319 320 322 321 321 322 322 321 320 318 316 314 312 310 309 308 307 307 309 309 307 304 303 302 301 300 298 296 295
323 324 324 321 320 320 322 323 321 321 321 321 322 323 320 319 321 320 319 319 319 318 317 317 315 314 313 311 308 306 306 307 307 305 304 303 302 301 299 297 296 295 294 292
323 324 325 321 320 320 321 321 321 321 321 321 321 320 319 318 318 317 316 316 316 315 314 313 312 311 310 308 306 305 304 304 303 302 301 300 299 296 295 295 294 293 291 290
323 324 324 322 320 320 320 321 322 322 322 322 321 319 318 317 316 315 315 315 314 314 312 311 311 310 308 306 305 303 301 300 299 298 296 296 296 294 292 291 290 290 290 288
316 320 322 322 321 320 320 320 321 321 321 321 321 319 317 316 315 314 313 313 312 311 311 310 309 308 306 303 301 300 299 297 296 294 293 291 290 289 290 289 289 289 287 287
317 317 317 316 318 320 320 320 320 320 319 319 321 318 316 315 313 312 311 311 310 310 309 307 306 304 301 300 300 298 296 294 292 291 290 289 289 289 288 288 286 285 285 284
324 318 319 320 318 319 320 320 322 320 319 318 319 318 315 313 312 311 310 309 308 307 305 302 300 299 298 297 296 294 292 290 290 289 288 288 287 287 286 285 284 284 282 281
320 318 319 320 318 317 316 317 319 320 319 318 318 317 314 312 311 310 308 306 305 302 300 298 296 294 293 293 291 290 290 289 288 287 286 286 286 285 285 285 284 284 282 282
314 318 318 318 318 315 314 315 315 316 316 316 316 314 312 310 309 307 305 303 300 297 295 292 290 288 289 289 289 288 287 286 286 286 286 285 284 284 283 283 283 282 282 281
319 318 317 316 314 312 311 311 312 312 312 312 311 310 309 306 304 303 301 299 295 292 289 286 286 285 285 288 289 287 286 289 287 284 283 282 281 281 280 280 281 281 280 280
317 315 314 314 313 310 310 310 308 308 308 307 307 306 304 302 300 298 295 293 289 287 286 288 289 288 287 287 289 288 286 286 286 283 281 281 280 280 279 280 280 279 279 279
314 314 313 312 310 310 309 308 307 306 305 304 303 302 300 298 295 293 291 290 290 289 288 288 288 288 288 286 286 286 287 284 281 280 279 279 279 278 278 278 278 277 277 277
312 312 312 310 308 306 305 304 303 303 302 300 299 298 296 295 293 291 291 290 289 288 287 287 288 287 287 286 284 281 280 280 279 278 278 277 277 277 276 276 276 276 276 275
306 306 306 305 304 302 301 300 299 298 297 297 296 295 294 292 290 289 288 288 287 287 286 286 287 286 282 280 280 279 279 278 278 277 277 276 276 276 276 275 275 275 274 273
299 301 301 299 298 298 297 295 295 295 294 295 293 291 290 288 287 286 286 286 286 286 285 283 281 280 280 279 278 278 278 277 277 276 276 275 275 274 274 274 273 273 272 272
293 293 294 293 292 292 292 292 292 290 290 290 290 288 287 286 285 285 285 286 283 281 279 279 279 279 279 278 277 277 277 276 275 275 274 274 274 273 273 272 272 271 271 270
290 290 289 289 289 289 289 290 290 289 289 288 287 286 285 284 284 283 282 282 280 279 278 278 278 277 277 277 277 275 275 274 273 273 272 272 272 272 271 270 270 270 269 269
289 288 288 288 288 288 288 288 288 287 286 285 284 283 283 282 283 282 281 279 278 277 278 277 277 276 275 275 273 273 272 272 271 271 271 270 270 270 269 269 269 268 268 267
288 288 287 287 288 288 286 285 285 284 283 282 282 282 282 281 280 279 278 278 277 276 275 274 274 273 273 272 271 271 270 270 270 269 269 269 268 268 268 267 267 267 266 266
286 285 285 285 284 283 283 282 282 282 281 280 280 281 281 280 279 277 276 276 275 274 273 272 271 271 270 270 270 269 269 268 268 267 267 267 267 266 266 266 266 265 265 264
285 284 284 284 284 283 283 282 282 281 280 279 278 277 276 276 275 274 274 273 272 272 271 271 270 269 268 268 267 267 267 267 266 266 266 265 265 264 264 264 264 264 263 263
282 283 282 282 281 281 280 279 279 279 278 277 276 275 275 275 274 273 272 272 271 270 270 269 268 268 267 267 266 266 265 265 265 264 264 264 263 263 262 262 262 262 263 263

GFSNGP_850_thetae_075.txt.gz
Theta_e
319 320 321 321 321 319 319 321 325 322 323 322 319 318 319 321 321 321 321 321 321 324 325 325 324 324 330 333 332 331 331 330 330 330 329 327 327 325 324 322 320 319 317 314
319 320 319 320 320 319 319 320 319 319 322 320 320 319 320 320 321 321 321 320 321 324 326 327 327 325 326 329 330 330 330 329 329 327 327 326 323 322 321 319 317 315 313 311
319 320 320 318 317 320 319 320 319 318 317 317 317 318 319 319 320 321 322 321 321 325 328 328 329 328 328 328 329 329 328 326 325 324 323 321 320 319 317 315 312 311 309 308
319 318 321 319 319 319 319 319 318 318 318 317 317 319 320 320 320 321 321 321 323 325 329 330 330 330 329 328 327 326 325 324 322 321 320 318 317 315 313 312 310 309 306 303
320 320 320 320 319 319 319 318 318 318 318 317 319 320 320 320 320 320 321 323 324 328 330 330 330 328 326 324 322 321 321 320 319 319 317 315 313 311 310 308 306 304 301 301
318 321 320 320 319 319 319 318 319 319 318 318 319 316 316 320 319 321 322 322 324 326 327 327 326 324 322 319 319 318 317 316 314 313 312 310 309 308 306 304 302 301 300 298
315 320 319 320 319 319 319 316 319 320 319 318 317 318 320 319 320 320 321 322 323 324 324 323 321 319 317 316 314 313 312 311 310 309 309 308 306 304 302 301 301 299 298 297
317 320 323 319 319 319 317 319 319 320 321 321 320 320 319 319 320 320 320 320 321 322 321 319 317 315 312 311 308 308 307 307 308 306 304 303 302 301 300 299 299 298 296 294
320 317 318 321 319 320 320 320 321 320 322 322 319 319 319 319 319 318 318 318 319 318 317 316 314 313 312 310 308 306 305 304 303 303 303 302 300 299 297 296 296 295 293 290
314 315 315 320 318 319 320 320 320 320 320 320 320 319 318 318 317 316 316 317 316 315 314 312 312 311 310 307 305 304 303 301 300 299 298 297 297 295 294 292 291 290 290 289
315 313 314 316 317 316 317 318 319 319 320 319 320 320 318 317 316 315 315 315 314 312 311 310 310 307 306 304 303 301 299 298 297 296 294 293 292 291 290 290 289 289 288 287
314 314 315 316 316 316 316 319 319 321 320 319 318 320 317 316 315 314 313 312 311 310 308 304 304 302 301 300 300 299 296 294 292 291 290 289 289 288 288 286 285 284 284 283
315 318 320 320 318 317 316 317 318 320 319 319 318 319 316 314 313 312 310 310 308 305 302 301 300 298 296 296 296 294 293 291 290 288 288 288 288 287 288 285 285 284 284 283
313 315 318 317 317 316 316 315 315 316 317 317 317 316 314 312 310 309 307 305 303 301 298 296 295 293 291 291 292 291 290 288 288 288 288 288 287 284 285 284 283 283 282 281
317 318 318 316 315 314 313 312 312 312 312 312 312 311 310 308 305 301 300 299 298 296 293 293 293 291 289 289 289 289 290 289 288 288 286 286 286 284 283 281 281 281 281 280
318 316 314 313 311 310 310 310 309 308 308 307 307 306 304 303 299 296 295 294 297 294 291 293 292 290 289 289 289 289 289 289 288 287 286 285 283 281 280 280 280 280 279 279
315 313 312 310 310 308 308 307 307 306 304 304 302 300 300 298 296 293 292 292 294 293 291 290 289 288 288 288 288 287 287 286 284 282 281 280 279 279 278 278 278 277 277 277
314 313 311 311 309 307 305 304 304 303 303 300 298 298 297 296 294 293 292 292 291 288 287 287 287 287 287 286 286 285 283 281 279 278 278 278 277 277 277 276 276 276 275 275
310 309 308 307 306 305 302 300 300 298 297 295 295 295 295 294 292 291 289 289 288 288 286 286 286 286 284 281 279 278 278 278 277 277 277 276 276 275 275 275 275 274 274 273
303 303 303 302 301 301 299 297 295 294 294 295 294 293 291 289 288 288 287 287 285 285 284 283 282 279 278 277 277 278 278 277 277 276 275 275 274 274 274 273 273 273 272 272
294 294 294 294 292 293 293 293 293 292 290 291 291 288 287 286 286 286 286 285 281 279 278 278 278 278 277 277 277 277 276 275 274 274 273 273 272 272 272 271 271 271 270 269
289 289 289 290 290 288 289 290 290 289 289 288 287 286 286 285 285 283 280 280 278 278 278 278 277 277 276 275 275 275 274 273 272 271 271 271 270 270 270 269 269 268 268 268
287 287 287 288 287 287 287 287 287 287 286 285 284 284 284 281 281 281 279 278 278 277 277 276 275 275 274 273 272 271 271 270 269 269 269 269 268 268 268 267 267 267 267 266
286 287 287 287 287 287 285 284 284 283 283 282 282 281 282 281 279 278 278 277 276 276 275 274 273 272 271 270 270 269 269 268 268 267 267 267 266 266 266 266 266 265 265 265
286 286 286 285 284 282 282 282 282 282 282 281 280 280 279 278 279 276 276 275 274 273 272 271 270 269 269 268 268 268 267 266 266 266 266 265 265 265 264 264 264 264 264 264
284 284 284 283 283 282 281 281 280 280 279 278 277 277 276 275 274 274 273 272 271 271 270 269 269 268 268 267 266 266 265 265 265 264 264 264 263 263 263 263 263 263 263 263
284 284 283 282 282 281 281 280 279 278 277 276 275 274 274 273 273 272 271 271 270 269 269 268 267 267 266 266 266 265 265 264 264 263 263 263 263 263 263 263 263 263 263 263

GFSNGP_850_thetae_078.txt.gz
Theta_e
317 319 319 319 319 319 320 319 320 319 320 319 319 319 319 320 318 320 321 323 324 324 323 323 323 326 328 328 328 328 328 328 328 327 329 330 329 328 326 325 324 322 321 319
319 319 319 319 319 320 319 317 318 320 320 319 320 320 318 319 320 320 320 319 320 321 324 325 323 322 324 328 329 330 330 330 329 330 330 328 326 325 325 322 321 320 319 318
318 319 319 319 319 320 319 318 318 318 317 317 317 316 315 318 319 320 321 320 320 320 320 324 325 325 325 327 330 331 331 329 329 326 325 326 325 323 321 319 318 318 316 314
316 316 322 318 317 319 319 318 317 316 316 315 315 318 318 319 320 320 321 321 321 320 322 325 326 326 327 329 329 328 327 326 324 324 324 322 321 320 319 318 317 315 312 310
317 318 319 319 318 317 318 317 316 316 316 316 317 318 318 319 319 320 321 321 321 322 324 326 327 327 327 326 326 325 325 324 323 322 322 321 319 318 316 314 312 310 308 307
315 318 317 317 317 317 317 318 317 316 316 317 316 315 314 320 320 321 321 320 319 321 325 328 328 328 327 326 325 322 320 320 320 319 318 317 315 314 312 310 308 306 304 302
313 318 317 318 317 318 320 316 316 318 318 317 315 316 319 320 320 320 318 319 321 323 325 328 328 327 324 322 320 318 317 316 315 314 313 312 310 309 308 307 305 303 302 301
316 318 320 316 319 318 316 317 318 320 320 320 320 320 320 319 319 320 320 322 323 323 324 324 323 321 319 317 316 314 312 311 310 310 309 309 308 306 304 303 302 301 299 297
315 315 316 316 318 317 319 319 320 321 321 320 319 319 319 319 320 321 322 322 322 322 321 320 319 317 315 313 311 308 307 306 307 307 305 304 303 302 301 301 299 297 295 295
315 316 316 316 316 317 317 318 319 319 319 319 319 318 319 320 320 320 320 320 320 319 318 317 316 315 313 311 309 307 307 305 304 303 303 302 300 298 297 295 295 294 293 291
313 312 313 314 316 314 316 317 319 320 320 319 319 319 319 319 318 318 318 318 317 316 314 311 311 310 309 308 307 305 303 300 299 299 297 296 295 293 292 292 290 290 289 289
311 312 313 314 314 314 315 315 317 318 319 318 318 319 318 317 316 316 316 314 314 312 311 309 308 307 305 304 304 303 301 297 295 294 293 292 291 290 289 288 287 288 287 285
313 314 314 314 316 317 316 316 317 318 319 319 319 318 316 314 314 314 313 311 310 308 306 304 304 303 300 300 300 298 297 294 293 291 290 290 289 289 289 288 289 286 287 286
313 314 317 317 317 316 316 316 316 316 317 318 318 316 315 312 310 310 308 305 303 301 300 300 299 297 294 294 294 294 294 291 290 289 288 289 289 288 288 287 286 286 285 284
315 315 316 316 314 313 313 313 314 313 311 312 310 310 310 308 305 301 297 297 297 297 295 294 294 293 293 293 293 292 291 290 289 289 289 288 288 286 286 285 283 282 281 280
315 316 314 314 312 311 311 310 311 307 307 305 305 303 300 300 297 294 293 293 296 293 294 295 295 291 290 289 289 289 289 289 288 287 287 286 285 284 282 280 279 279 279 279
313 310 311 309 309 308 308 307 306 304 302 302 299 297 296 295 293 292 291 293 295 293 291 291 289 288 288 288 288 287 287 286 286 285 283 281 279 278 278 278 277 277 276 276
312 312 311 310 308 307 304 304 303 301 299 296 295 295 294 293 292 292 293 292 291 289 288 287 287 287 287 287 286 285 283 281 279 278 277 277 277 276 276 276 275 275 275 275
307 309 306 305 305 304 302 300 300 299 296 295 293 293 293 292 291 290 289 289 288 287 284 285 286 285 284 281 279 279 278 278 278 278 277 276 276 275 274 274 273 273 273 272
303 302 301 299 298 300 297 295 295 294 293 294 294 292 290 288 287 287 288 287 285 284 283 281 279 279 278 278 278 279 279 278 277 276 275 274 273 273 272 271 271 271 270 270
297 297 295 294 292 291 292 292 292 291 290 291 291 288 286 286 286 286 286 284 279 278 278 278 278 278 278 278 278 277 276 275 273 272 272 271 270 270 269 269 269 268 268 268
290 290 289 289 289 288 289 290 290 288 288 288 287 286 286 284 284 283 281 281 277 278 278 278 278 277 276 275 274 273 272 271 271 270 270 269 268 268 267 267 267 266 266 266
287 287 287 287 286 285 287 287 287 287 287 286 285 284 283 281 280 280 279 277 277 277 277 276 274 273 273 272 272 271 270 269 268 268 267 267 266 266 266 265 265 265 264 264
286 286 286 286 286 286 285 284 285 284 284 283 282 282 282 281 279 278 277 276 276 276 275 273 272 272 271 270 269 269 268 267 267 266 266 265 265 264 264 264 263 263 263 263
285 285 285 286 285 283 283 283 283 282 282 280 280 279 279 278 279 276 275 274 274 273 272 271 270 269 269 268 268 267 267 267 266 266 265 265 264 264 264 264 263 263 263 263
284 284 283 283 283 282 282 282 281 280 280 279 277 277 276 275 274 274 273 272 271 270 270 269 269 268 268 268 268 267 267 266 266 265 265 265 265 265 264 264 264 264 264 264
283 283 283 282 281 281 281 280 280 278 278 277 275 274 274 273 273 272 271 270 270 269 269 268 268 267 267 267 267 267 266 266 266 266 266 265 265 265 265 265 264 264 264 264

GFSNGP_850_thetae_081.txt.gz
Theta_e
316 315 318 318 318 318 318 317 318 318 320 320 318 317 317 321 321 319 317 320 322 322 323 323 324 324 324 324 325 326 327 327 326 326 327 328 328 327 327 328 327 326 325 322
317 315 316 318 320 319 318 318 317 317 318 317 317 318 318 320 319 319 319 320 321 322 323 322 322 321 323 323 325 326 326 326 327 327 327 328 327 323 326 325 326 324 323 323
317 318 319 320 319 319 319 317 316 318 317 317 317 316 316 319 320 318 319 320 320 323 323 322 323 322 322 322 324 326 326 327 327 327 327 327 326 325 325 323 323 323 321 321
313 314 321 318 316 317 318 318 317 316 316 316 315 319 321 320 320 320 319 320 321 321 320 321 323 324 324 324 326 327 328 328 329 327 325 324 323 323 322 321 321 319 319 319
317 316 315 317 317 317 318 318 317 315 315 314 316 315 316 319 318 319 319 319 320 320 320 320 322 324 326 327 328 329 329 326 324 323 324 324 323 321 320 319 318 317 315 313
315 319 316 314 315 316 317 319 316 316 315 314 315 315 314 319 318 319 319 320 320 321 321 322 323 325 325 326 326 325 323 322 322 320 320 320 319 318 317 315 314 312 310 308
316 318 314 314 316 317 320 317 317 317 317 315 315 316 318 319 319 319 320 321 321 320 320 323 325 325 325 325 325 322 319 317 317 317 317 316 315 314 312 311 309 307 306 304
315 317 317 315 318 318 316 317 316 318 319 317 319 319 319 319 320 320 321 321 320 321 325 326 326 326 325 323 319 317 315 315 314 313 312 312 311 310 308 307 305 304 303 302
315 314 313 315 317 317 316 316 318 319 320 320 319 318 319 317 319 321 321 322 324 325 325 324 322 320 319 316 313 312 311 310 310 309 308 307 306 306 305 303 302 302 301 299
313 313 313 314 314 316 316 318 317 319 319 319 318 318 318 319 320 322 323 323 323 322 321 319 317 315 313 312 309 307 306 306 306 306 305 304 302 302 301 300 297 296 295 294
313 312 313 314 315 315 315 316 318 318 319 319 319 319 319 319 321 321 321 321 320 320 318 315 313 312 310 310 309 309 307 306 304 303 303 302 300 297 295 294 293 292 290 289
312 312 312 312 313 313 313 314 315 318 319 319 318 318 319 317 318 318 318 317 317 316 315 311 311 309 308 307 306 306 305 301 300 298 295 294 294 293 292 291 289 288 288 288
309 309 309 313 313 314 315 315 315 317 318 319 318 317 318 317 315 314 314 311 310 308 306 307 307 307 305 304 303 301 298 294 294 293 293 292 291 290 289 289 289 289 288 287
308 309 310 315 316 315 316 315 314 316 316 315 315 314 313 315 312 313 308 305 304 304 303 302 302 300 295 294 294 294 295 295 293 292 291 290 289 289 289 288 287 286 286 284
309 310 310 311 315 313 313 313 314 312 309 310 309 312 305 305 303 301 298 298 299 299 296 295 294 292 293 295 296 294 292 291 290 289 288 288 287 286 286 285 284 283 282 281
308 311 312 313 312 311 311 310 311 306 305 303 303 301 299 299 297 294 294 293 295 293 293 295 294 292 292 291 291 290 289 288 288 287 286 285 285 284 282 280 279 278 277 277
310 309 310 310 309 307 306 305 306 303 300 299 297 296 296 295 293 291 292 293 293 292 291 291 289 288 288 288 288 287 287 286 285 284 282 280 278 277 277 277 276 276 276 275
308 309 310 310 306 304 301 300 298 297 297 295 294 294 292 292 291 291 290 290 290 288 287 286 286 286 286 286 285 284 282 280 279 279 278 278 278 277 276 275 275 274 273 273
303 306 307 305 303 302 300 297 295 295 293 293 293 292 292 291 289 287 287 287 287 286 283 284 285 284 283 280 280 280 281 280 279 279 278 276 276 275 274 273 272 271 271 270
296 299 300 299 297 298 295 292 291 291 290 291 291 291 289 287 287 286 287 285 283 281 280 279 280 280 280 280 280 280 279 278 276 275 274 273 272 271 270 270 269 269 268 268
291 292 290 294 293 291 290 289 290 289 289 290 290 287 286 285 285 285 286 283 278 278 278 279 280 280 279 278 277 275 274 274 273 272 271 270 269 269 268 267 267 266 266 266
288 289 287 288 289 288 288 288 289 288 288 288 286 286 285 284 283 283 281 281 277 278 279 279 278 276 275 274 273 272 272 271 270 269 269 268 268 267 266 266 266 265 265 264
286 285 285 286 286 285 286 287 286 286 285 284 284 283 283 281 281 281 279 276 277 277 277 275 274 273 272 271 271 270 269 269 269 268 268 267 267 266 266 266 265 265 265 265
284 285 284 285 286 287 285 284 285 285 284 283 282 282 282 281 279 278 277 276 276 275 274 272 271 270 270 270 270 269 269 268 268 268 267 267 266 266 266 266 266 265 265 265
283 283 284 286 286 283 283 283 283 282 282 281 280 280 279 279 280 276 275 274 273 272 271 270 270 270 269 269 269 269 268 268 268 267 267 267 267 267 266 266 265 265 265 265
283 283 282 283 283 282 282 283 282 281 281 280 278 277 276 275 274 273 272 272 271 270 270 270 269 269 269 268 268 268 268 268 267 267 267 267 267 266 266 266 266 266 266 265
283 284 283 282 282 282 282 282 281 279 279 277 276 274 274 273 272 271 271 270 270 270 269 269 269 268 268 268 268 268 268 267 267 267 267 266 266 266 266 266 266 266 266 266

GFSNGP_850_thetae_084.txt.gz
Theta_e
314 316 316 317 316 315 316 316 317 317 317 317 316 316 316 320 319 319 318 319 322 323 322 322 323 323 322 322 324 324 324 325 325 325 324 324 324 323 323 323 324 325 325 323
313 311 315 316 316 316 316 316 316 315 315 315 316 318 316 318 320 319 319 319 320 321 321 321 321 321 322 322 323 324 324 324 325 325 325 325 325 325 326 325 325 323 323 324
312 312 314 316 314 317 317 316 316 317 315 314 315 314 315 318 319 319 321 321 320 319 320 321 321 322 323 322 323 324 325 325 325 325 325 325 326 326 326 325 323 323 323 322
314 314 321 317 314 315 316 316 314 315 314 314 314 317 318 319 319 320 321 321 320 319 320 322 322 322 323 323 323 324 325 325 325 325 325 325 325 323 322 322 322 322 322 321
314 316 316 315 316 316 316 317 315 315 314 314 317 314 314 318 319 321 321 320 320 319 319 320 322 322 323 323 324 324 325 325 324 324 323 323 322 322 322 321 320 320 318 317
314 316 317 315 313 315 316 317 315 314 314 315 314 313 312 318 318 318 318 318 318 318 319 320 320 322 324 325 325 325 324 323 321 321 321 321 320 321 320 318 316 314 313 311
313 316 315 315 314 314 317 315 315 315 315 315 314 314 318 317 317 317 317 317 317 318 320 320 322 323 324 324 322 321 321 320 318 316 316 316 315 314 314 313 312 311 310 307
314 316 316 312 313 318 315 316 317 317 318 317 318 319 317 316 317 319 319 320 321 322 322 323 323 323 323 320 318 317 315 314 314 314 313 312 311 310 309 309 308 307 305 305
312 314 312 310 312 311 312 317 316 317 318 318 319 319 317 317 319 321 321 322 323 323 322 321 323 323 322 316 314 313 312 312 311 311 310 309 308 308 307 305 305 304 303 302
311 310 310 310 310 311 314 315 316 316 316 318 317 316 317 317 319 320 321 320 321 323 322 319 318 316 315 312 310 309 308 307 307 307 307 306 305 304 303 302 301 300 299 297
310 311 312 312 312 311 312 313 315 314 315 317 318 316 316 318 319 320 320 319 319 319 317 313 313 312 311 310 309 308 307 306 305 305 304 303 302 300 298 296 293 293 292 291
308 309 309 309 309 311 313 314 313 316 316 317 317 317 317 316 318 318 318 316 318 315 313 310 311 310 308 306 306 307 306 303 301 300 298 297 296 294 292 293 292 292 290 289
308 309 309 308 308 313 314 314 314 315 315 316 314 317 317 316 311 312 314 314 314 311 310 309 309 307 303 303 303 302 301 296 295 295 294 293 292 291 290 288 288 287 287 286
308 308 308 307 309 309 313 312 315 315 315 314 312 313 314 313 309 309 304 308 309 307 303 303 302 299 295 296 296 295 295 294 294 292 291 290 289 288 287 287 286 285 284 282
308 308 308 309 310 311 312 313 311 311 311 309 305 303 303 306 306 302 297 300 301 300 298 295 294 292 293 294 296 294 293 292 290 289 289 288 287 286 285 284 283 281 280 279
308 307 308 310 310 309 309 307 311 307 306 305 299 297 298 297 294 294 294 293 296 293 292 293 293 292 292 292 292 291 290 289 288 287 286 285 284 282 280 279 278 277 277 276
306 307 308 308 308 307 306 304 302 300 298 298 296 294 294 294 292 292 291 292 292 291 290 291 289 288 289 289 289 288 287 286 285 283 281 280 280 280 279 278 277 276 274 273
304 306 306 308 307 304 302 299 298 296 295 294 293 293 292 292 291 290 289 289 289 288 287 286 286 287 287 286 284 282 282 281 282 281 280 279 277 276 275 274 273 272 271 271
301 302 303 304 304 301 299 295 295 293 291 291 292 291 291 290 289 288 287 287 287 286 282 284 284 283 282 281 282 281 281 279 278 276 275 274 273 272 272 271 270 270 269 269
296 296 298 297 296 297 293 291 290 289 287 288 289 288 286 284 285 286 286 285 282 281 280 280 280 281 281 279 278 277 276 275 274 273 273 272 271 270 270 269 269 268 268 268
290 290 291 291 289 288 288 287 288 286 286 288 289 286 284 283 284 284 285 283 278 279 280 280 279 278 276 275 275 274 274 273 272 272 271 270 270 269 269 268 268 268 267 267
287 287 286 285 284 283 284 286 287 287 286 286 286 285 284 283 283 283 281 281 278 278 278 276 275 274 274 273 273 273 272 272 271 270 270 269 269 269 268 268 268 267 267 267
284 284 283 284 284 282 282 284 286 287 285 284 284 284 284 282 282 283 280 277 277 275 275 274 273 272 272 272 272 271 271 270 270 269 269 269 269 268 268 267 267 267 267 267
283 283 282 281 282 282 281 282 284 284 284 283 283 283 283 283 280 278 277 275 274 273 273 272 272 272 271 271 270 270 269 269 269 269 269 268 268 268 267 267 267 267 267 267
282 281 281 282 282 281 281 282 282 281 282 281 280 280 280 278 280 275 274 273 272 272 272 271 271 270 270 269 269 269 269 269 269 269 268 268 267 267 267 267 267 267 267 267
282 282 281 282 282 282 282 282 282 281 281 280 278 277 276 275 274 273 272 272 271 271 271 270 269 269 269 269 269 269 269 269 268 268 268 267 267 267 267 267 267 267 267 267
282 283 283 282 282 282 282 282 281 279 278 277 275 274 273 273 272 272 271 271 271 270 270 269 269 269 269 269 269 268 268 268 268 267 267 267 267 267 267 267 267 267 267 267

GFSNGP_850_thetae_087.txt.gz
Theta_e
313 312 313 314 314 315 317 319 317 317 317 318 319 320 320 320 319 319 320 320 318 319 321 322 323 323 323 324 324 324 324 324 323 320 319 318 318 318 318 319 320 320 321 322
311 312 313 313 313 314 317 318 318 316 317 317 318 317 317 317 318 318 320 321 321 319 320 321 320 321 321 322 323 324 323 323 323 323 322 322 321 320 320 321 322 323 324 324
312 312 312 313 314 316 317 317 317 318 318 317 317 317 316 317 317 318 319 320 321 322 321 321 320 321 321 322 323 323 323 323 323 323 323 323 323 322 323 323 324 324 323 322
309 311 312 311 313 316 316 317 317 317 317 317 317 318 318 318 317 318 318 318 319 320 321 320 319 321 322 322 323 323 323 323 324 324 324 324 323 323 323 323 322 322 322 322
309 310 312 310 316 316 317 319 317 316 317 316 316 316 316 316 316 317 317 319 319 319 320 319 318 320 321 322 322 323 323 324 323 323 323 323 322 322 321 321 321 319 319 317
309 312 314 313 316 314 316 320 316 317 317 317 316 318 319 317 316 317 317 316 318 318 318 316 318 320 322 322 323 322 322 323 322 320 320 321 320 320 320 319 317 316 314 311
308 308 310 315 314 316 318 317 312 313 316 317 317 316 315 315 316 316 317 315 314 316 316 318 319 321 322 321 322 322 322 321 321 319 319 318 317 316 316 315 312 311 309 307
309 310 312 312 314 315 314 312 312 312 315 316 317 316 316 317 318 318 318 316 317 318 318 317 318 321 320 321 319 318 319 318 316 314 314 314 313 312 311 309 308 306 306 304
312 313 312 310 312 311 311 312 312 312 314 316 317 315 316 317 318 319 318 315 316 317 318 318 319 320 319 316 314 313 312 311 311 311 310 309 308 307 306 305 304 304 303 301
311 310 311 310 310 311 311 311 311 312 314 316 316 315 315 316 315 315 318 316 313 315 316 315 316 315 313 311 310 310 309 308 308 307 306 304 304 303 302 301 300 298 296 294
309 309 309 308 311 310 309 310 313 313 314 315 316 315 314 313 314 314 313 312 314 316 313 311 311 311 309 309 309 308 307 305 305 304 303 301 300 298 298 295 294 294 293 292
310 308 308 308 309 308 308 312 313 314 315 315 316 316 316 316 316 315 312 312 314 312 311 310 310 309 307 307 307 307 305 303 301 299 298 297 296 294 293 292 292 291 290 289
307 308 309 308 308 308 309 310 312 313 315 316 315 316 314 316 311 308 309 310 309 307 308 308 307 307 305 305 305 304 303 298 296 296 295 294 292 292 291 288 288 288 287 285
307 307 307 307 307 308 309 310 310 311 309 312 315 314 313 304 303 308 306 303 303 301 300 300 301 300 299 299 299 297 296 294 294 293 291 291 290 289 287 286 285 284 282 281
305 305 306 307 307 307 308 309 308 306 302 300 304 305 303 301 297 296 295 299 300 299 296 297 297 294 294 294 295 294 293 292 291 290 289 288 287 285 284 282 280 279 278 277
306 306 307 307 307 308 306 305 304 302 297 294 296 300 298 298 295 293 293 294 296 293 292 292 292 291 292 293 293 291 289 288 288 287 285 283 281 281 280 280 279 278 277 276
305 306 306 306 306 306 304 302 301 300 297 295 293 293 295 294 293 291 291 291 291 290 290 291 290 290 290 289 289 288 288 285 283 282 282 282 281 279 277 276 275 274 273 272
301 301 303 303 302 303 302 298 296 293 294 293 293 292 292 292 289 288 288 289 290 288 288 287 287 288 287 285 285 284 283 283 282 280 278 277 276 275 274 273 272 271 270 270
299 299 301 301 300 300 299 296 293 291 292 291 291 290 290 288 287 286 286 287 287 286 283 285 285 285 284 283 283 281 279 278 277 276 275 274 273 272 272 271 271 270 270 269
294 295 296 296 294 294 293 292 291 288 287 289 289 287 286 285 285 285 286 285 283 282 282 283 283 283 280 278 278 277 276 276 275 274 273 272 272 271 270 270 270 269 269 269
290 289 289 290 289 287 287 286 286 284 285 287 288 286 284 283 284 284 285 283 280 281 282 280 278 277 276 276 276 275 274 274 273 272 272 271 270 270 270 269 269 269 268 268
286 286 285 285 284 282 281 281 282 282 282 283 285 285 284 283 284 284 282 282 279 278 276 276 275 275 274 274 274 273 273 272 272 271 270 270 270 269 269 269 269 269 269 268
284 283 282 282 282 281 281 281 281 282 283 282 282 283 283 282 282 282 281 276 275 275 275 274 273 273 273 273 273 272 272 271 271 270 270 270 269 269 269 269 269 269 268 268
282 282 281 280 280 280 280 279 280 280 281 281 282 282 283 282 280 278 276 274 274 273 273 272 272 272 272 272 271 271 270 270 270 270 269 269 269 269 269 269 268 268 267 267
280 279 279 280 281 280 280 281 281 281 281 280 280 280 281 279 279 274 273 272 272 272 272 271 271 271 271 270 270 270 270 269 269 269 269 268 268 268 268 268 268 267 267 267
279 279 279 279 279 280 281 282 282 281 281 280 279 277 275 275 274 273 272 272 271 271 271 270 270 270 270 270 270 269 269 269 268 268 268 268 268 268 268 267 267 267 267 267
279 280 280 280 280 281 281 281 281 279 279 277 275 273 273 272 271 271 271 271 270 270 270 270 270 270 269 269 269 268 268 268 268 268 268 268 268 267 267 267 267 267 267 267

GFSNGP_850_thetae_090.txt.gz
Theta_e
310 310 311 311 312 314 316 316 320 320 320 319 319 319 318 318 320 321 320 319 323 325 326 327 327 327 326 326 325 324 323 321 319 318 317 317 316 316 316 316 316 316 318 320
311 311 311 311 311 311 313 315 316 317 319 319 318 317 318 319 320 321 321 322 321 321 324 326 325 323 323 323 324 324 324 323 322 321 320 319 318 318 318 319 320 320 321 321
309 311 312 312 313 312 312 314 317 320 319 319 319 318 318 319 320 320 321 320 320 321 320 323 321 323 326 323 323 323 323 323 323 323 322 321 321 321 321 320 320 320 321 323
309 308 308 308 311 313 313 316 317 320 319 319 319 318 318 319 319 320 320 319 319 320 321 320 319 322 323 324 323 323 323 323 323 323 322 322 321 320 320 321 322 322 323 322
310 309 308 309 312 311 316 316 319 319 320 320 318 318 319 319 318 318 317 318 318 319 319 320 320 318 320 322 322 323 323 323 323 323 323 323 322 323 322 322 322 321 320 320
309 309 310 315 313 315 316 317 317 317 318 318 319 323 320 318 318 318 317 316 317 318 317 317 317 318 319 321 321 322 322 322 322 322 323 323 322 321 321 320 318 317 316 314
309 309 310 309 309 313 317 317 314 315 315 316 318 319 320 319 320 317 316 318 316 317 318 319 318 318 319 320 321 321 321 322 322 321 321 320 319 318 317 315 314 312 309 306
310 311 311 310 313 315 314 312 312 313 313 313 314 317 318 319 317 316 316 316 316 316 315 316 317 318 318 319 319 320 320 319 318 317 316 315 314 313 312 310 308 306 304 302
311 311 311 311 310 309 311 312 311 311 313 313 313 315 317 315 313 314 314 315 314 314 315 315 316 319 320 316 316 315 315 314 313 312 311 310 310 309 307 305 305 302 300 299
310 309 309 308 310 310 312 311 309 311 313 315 314 316 314 313 311 312 312 311 314 316 315 312 315 315 315 313 313 312 310 309 307 308 306 307 306 303 302 301 300 298 296 294
309 309 308 308 308 308 309 309 310 310 311 314 316 314 315 312 309 307 311 313 314 314 313 310 311 309 309 310 310 308 307 306 305 304 304 302 300 298 298 296 295 294 293 291
310 309 309 309 308 310 309 310 310 309 311 316 317 315 314 308 301 300 306 310 312 311 310 309 309 308 307 307 306 306 305 303 302 300 300 299 298 295 293 293 292 291 291 289
309 308 308 309 309 309 310 309 307 307 310 311 307 311 309 310 307 297 297 300 303 308 304 306 307 306 304 305 305 305 304 302 300 298 296 294 293 293 291 287 287 288 287 286
307 307 308 308 308 308 308 307 306 306 306 310 305 304 303 306 304 301 301 298 298 304 299 302 303 302 301 302 303 302 300 297 295 294 293 291 288 286 284 283 283 283 281 281
307 307 307 307 308 308 307 306 303 302 300 304 304 302 301 299 299 299 299 299 300 299 300 299 299 297 296 297 298 296 295 295 293 292 290 289 288 286 284 281 279 278 277 277
304 306 307 308 308 307 305 304 302 301 299 299 302 297 297 297 294 292 292 293 296 294 293 294 294 292 294 294 294 294 292 291 289 288 287 285 283 281 280 279 277 276 275 274
302 304 304 304 305 304 302 302 300 297 297 295 296 296 293 294 292 291 291 291 292 291 291 291 290 290 291 292 291 290 288 287 285 284 283 282 279 278 277 276 274 273 273 272
299 299 299 299 299 301 298 298 298 295 292 292 291 293 292 292 290 289 289 290 290 289 288 288 288 288 289 288 287 285 285 284 282 280 278 277 277 276 274 273 272 271 271 271
294 294 296 297 297 297 295 294 292 291 291 291 290 289 289 289 288 288 287 288 287 286 284 285 285 285 284 283 283 281 280 278 278 277 276 275 274 273 272 272 271 270 270 270
290 292 293 293 294 293 292 291 290 287 286 286 286 286 283 284 285 285 286 286 284 283 283 283 283 282 280 278 278 278 277 276 276 275 274 274 273 272 272 271 271 271 270 270
288 288 288 288 288 287 286 285 285 283 282 282 282 281 280 281 283 284 285 284 281 282 282 279 278 278 277 277 276 276 276 275 274 274 273 272 272 271 271 271 270 270 269 269
285 285 284 284 284 283 282 281 282 280 279 280 280 281 282 279 279 281 281 281 280 278 277 277 276 276 276 275 275 275 274 274 273 272 272 271 271 271 270 270 270 269 269 269
282 282 282 282 282 281 280 280 280 281 281 280 280 281 282 280 277 279 280 276 276 275 275 275 274 274 274 274 274 273 273 272 272 272 271 271 270 270 270 269 269 269 269 268
281 280 280 279 279 279 278 277 279 280 281 282 282 281 281 282 280 277 276 274 274 274 275 274 273 273 273 273 273 272 271 271 271 271 270 270 270 269 269 269 269 268 268 269
279 278 278 278 277 276 277 278 279 280 280 280 280 280 280 279 278 274 273 273 273 274 273 272 272 272 272 272 271 271 271 271 270 270 270 269 269 269 269 268 268 268 268 269
279 278 277 277 276 276 277 278 280 280 280 280 279 278 276 274 273 273 273 272 272 272 272 271 271 271 271 271 271 270 270 270 270 269 269 269 269 268 268 268 268 268 268 268
278 278 278 278 278 278 279 280 280 279 279 278 275 273 273 272 272 272 271 271 271 271 271 271 271 270 270 270 270 270 269 269 269 269 269 268 268 268 268 268 268 268 268 268

GFSNGP_850_thetae_093.txt.gz
Theta_e
310 309 311 312 313 314 315 317 319 319 320 320 321 320 320 319 319 319 321 322 323 326 328 329 329 330 330 329 327 325 324 324 324 324 325 324 324 324 324 324 323 323 323 323
309 310 310 310 310 311 311 313 316 317 317 317 318 318 318 318 318 319 320 320 323 323 326 328 329 330 330 329 329 327 326 325 324 324 324 324 324 324 323 323 323 322 322 321
310 309 311 313 312 312 311 311 312 315 316 316 319 319 319 318 318 318 319 321 322 322 322 324 327 329 329 329 329 329 327 326 325 324 324 323 323 323 322 322 322 322 321 321
311 311 310 309 310 311 311 314 313 312 314 319 319 318 318 318 318 318 320 321 321 321 321 322 323 327 329 329 329 329 328 327 326 325 324 324 323 323 323 322 322 322 321 322
312 312 310 310 312 316 313 313 319 320 319 319 319 320 321 319 319 321 321 320 320 320 320 321 322 324 327 329 329 328 327 327 326 325 325 324 324 323 323 322 322 320 320 319
310 311 312 315 312 311 314 316 316 316 318 318 318 321 322 320 321 321 321 321 321 321 320 320 323 324 326 327 327 326 326 325 324 323 323 322 322 320 320 320 320 318 317 314
312 311 311 311 311 310 316 318 314 314 314 315 317 316 317 316 318 321 320 319 320 320 321 322 323 324 325 326 326 325 324 323 321 320 321 320 321 320 319 317 315 312 311 307
310 312 311 310 313 314 314 312 313 313 313 312 314 316 315 315 318 317 315 316 319 321 321 322 322 322 322 321 320 320 320 320 320 320 319 318 317 315 314 312 311 307 305 302
311 311 311 312 312 311 311 311 312 312 311 312 313 314 316 314 318 315 313 313 314 316 317 317 318 318 316 315 316 318 318 317 315 315 314 311 311 310 309 306 305 302 301 298
311 311 311 311 309 309 309 310 311 310 311 311 311 314 315 315 314 311 311 309 310 311 312 311 311 312 316 313 314 316 316 313 311 311 309 306 305 303 301 301 299 297 297 295
310 310 310 309 309 309 309 310 310 311 309 310 313 316 316 311 310 309 307 306 305 306 308 306 306 309 310 310 311 312 310 309 308 308 307 303 301 299 297 295 295 296 293 292
311 310 310 310 309 310 310 310 310 308 308 314 314 311 309 309 307 307 306 301 300 301 303 303 303 305 306 307 309 309 307 304 302 303 302 298 298 294 292 292 293 293 291 291
310 309 309 309 310 310 310 310 308 306 308 310 307 310 306 306 305 301 301 299 297 298 298 298 298 297 296 298 304 305 304 300 299 299 296 296 296 294 292 288 289 288 288 287
308 308 308 308 309 309 309 309 305 304 304 307 304 306 303 302 300 299 297 298 295 292 293 294 295 295 294 298 302 301 299 297 296 295 293 292 290 289 288 287 286 284 282 282
308 309 309 309 309 309 309 307 306 304 301 301 303 302 301 300 298 296 296 297 297 298 296 297 295 295 295 296 296 294 294 292 291 290 289 288 286 284 283 282 280 279 278 277
307 306 307 308 308 308 308 307 305 304 300 297 299 298 296 298 296 293 293 293 296 295 294 295 295 293 294 294 294 293 292 292 291 289 287 285 284 282 281 280 278 277 276 275
304 305 304 304 303 303 304 305 303 303 299 294 294 294 293 292 291 292 292 292 292 291 291 292 290 291 292 293 294 291 289 287 287 286 285 283 282 279 278 277 275 274 274 274
299 299 300 300 299 299 300 302 300 298 295 291 291 291 290 290 290 290 290 291 292 291 290 289 290 291 291 290 289 287 285 284 283 281 279 278 277 276 276 275 275 274 273 273
295 294 294 293 293 294 297 298 297 295 292 290 288 287 286 287 285 286 286 288 287 287 285 287 288 288 286 285 285 284 282 280 279 277 277 276 275 275 274 273 273 272 272 271
290 290 289 290 291 291 292 292 291 289 287 287 286 284 283 282 282 282 284 284 283 282 281 282 283 282 281 279 279 279 279 278 277 276 276 275 275 274 274 273 272 271 270 270
287 286 285 285 287 287 286 286 286 284 282 282 283 282 281 280 282 280 281 280 276 278 279 279 278 277 277 278 278 278 277 276 276 275 274 273 272 272 271 271 270 270 269 269
285 283 282 283 283 283 282 282 282 282 281 281 281 280 280 279 281 281 278 275 274 275 277 277 277 277 277 277 277 276 276 275 274 273 272 272 271 271 270 270 270 270 270 270
283 282 281 280 280 279 279 279 279 280 280 280 280 280 280 279 280 281 280 278 277 275 276 276 275 275 275 275 275 275 274 273 273 273 272 271 270 270 271 271 271 270 270 270
280 280 279 279 278 277 277 277 277 277 277 278 278 279 280 281 280 279 277 275 275 275 276 275 274 274 275 274 274 273 272 272 272 272 272 271 271 271 271 271 270 270 270 269
279 279 278 278 277 276 276 276 276 277 277 278 278 278 279 278 280 276 274 273 273 274 274 273 273 273 273 272 272 272 272 272 271 271 271 271 271 271 270 270 270 269 269 269
280 279 278 277 277 276 276 275 274 276 277 277 277 278 278 278 275 274 273 272 272 273 273 272 272 272 272 272 272 272 271 271 271 271 271 271 270 270 270 269 269 269 269 268
277 277 276 276 276 276 276 276 277 277 277 278 277 275 274 273 273 273 273 272 272 272 271 271 272 272 272 271 271 271 271 271 270 270 270 270 269 269 269 269 269 268 268 268

GFSNGP_850_thetae_096.txt.gz
Theta_e
309 310 310 310 313 315 316 318 319 319 319 320 320 319 318 318 319 319 319 320 322 325 327 329 331 331 330 328 326 325 324 325 325 324 323 324 323 323 323 323 322 321 321 321
309 309 308 309 310 311 312 313 313 316 317 317 317 317 318 318 318 318 318 319 319 321 324 327 329 331 330 329 328 327 324 324 325 325 325 324 325 324 323 323 323 323 323 323
311 310 309 311 310 309 309 310 310 312 314 315 317 317 318 319 319 319 319 318 318 320 322 325 328 329 331 330 330 328 327 325 324 325 325 325 325 325 324 324 324 323 323 323
311 311 312 311 310 310 311 312 312 317 314 312 316 318 318 319 321 321 323 323 322 322 321 322 323 328 329 330 330 330 328 326 326 325 325 325 325 325 325 324 324 323 322 321
310 311 310 310 311 312 316 317 318 319 319 319 318 318 317 319 318 318 319 322 322 321 321 321 320 321 327 330 330 330 330 328 327 326 325 325 324 324 323 323 322 322 321 320
312 311 312 314 312 311 312 316 315 315 315 315 315 319 318 316 316 317 318 319 319 319 320 320 320 321 324 328 330 330 330 329 328 326 325 325 324 323 322 321 321 320 319 315
312 313 312 312 311 311 313 318 314 314 314 314 314 314 314 315 317 316 318 316 317 318 321 322 322 322 324 327 330 329 329 328 327 326 326 325 324 322 322 320 319 316 313 308
311 311 312 311 311 314 314 312 312 313 313 312 313 313 313 313 316 316 316 313 314 316 319 322 323 324 325 326 327 328 327 326 324 323 324 323 322 319 317 316 313 308 306 302
310 310 311 311 313 313 311 310 310 312 312 312 311 311 312 316 316 316 314 311 311 312 313 315 318 321 322 321 319 320 321 321 320 319 319 317 317 315 313 309 309 301 298 296
312 312 312 312 312 310 310 310 311 311 311 309 309 312 315 314 313 313 312 309 307 307 309 310 312 314 317 318 316 316 318 317 315 315 312 308 306 303 300 299 299 297 294 293
312 311 311 311 311 311 311 311 311 311 310 309 313 313 311 312 311 311 310 304 303 303 304 304 304 306 307 308 310 312 311 307 304 303 302 301 299 296 297 294 296 295 292 292
312 311 311 311 310 310 310 311 311 309 308 310 309 308 308 309 309 305 304 300 300 300 299 298 299 300 299 300 302 304 303 301 299 298 296 295 295 293 290 291 291 292 292 292
311 310 310 309 309 310 310 310 309 307 306 306 307 308 305 305 305 300 295 297 298 298 297 298 297 296 295 296 298 299 297 294 295 296 294 292 292 292 289 288 290 289 288 287
308 309 310 310 309 309 310 309 307 305 303 303 304 303 302 303 299 299 295 294 295 296 296 295 295 293 293 293 293 294 295 294 294 294 295 293 292 291 289 288 286 283 281 281
309 309 309 308 309 309 309 309 308 307 303 300 298 299 299 298 297 296 294 294 294 296 295 296 298 295 294 299 299 295 294 294 289 288 288 288 287 286 285 284 283 280 278 277
305 306 307 306 306 305 305 305 307 306 304 299 298 297 296 295 294 294 291 292 293 291 291 292 291 291 293 296 297 295 293 291 291 290 290 288 286 285 283 281 280 278 277 277
302 302 301 302 302 302 301 302 303 303 301 297 296 294 293 291 290 289 289 291 292 290 290 290 288 291 293 294 294 294 293 290 289 288 287 284 283 281 279 278 277 276 275 275
297 298 297 296 296 296 297 297 300 300 299 297 294 292 290 288 288 286 287 287 288 287 287 288 289 290 291 291 290 289 287 285 284 283 281 280 279 278 277 277 276 274 274 273
292 293 291 290 290 292 294 294 295 295 294 293 291 289 287 286 285 284 284 285 284 284 282 283 286 287 287 287 287 285 284 283 281 279 278 277 277 276 276 275 274 273 273 272
288 287 287 286 288 289 289 289 289 289 288 288 287 285 283 282 282 282 283 283 280 279 278 278 282 283 282 281 281 280 279 278 278 278 278 277 276 275 274 273 273 272 272 272
286 285 284 283 283 285 285 285 285 284 283 283 284 282 281 280 281 281 282 281 277 276 275 276 278 278 277 278 278 278 278 277 277 276 276 275 274 274 273 272 272 272 271 271
284 283 281 281 280 281 282 282 282 282 281 281 281 281 280 280 280 281 280 280 278 280 282 280 278 276 276 277 277 277 276 275 275 275 274 274 273 273 272 272 271 271 271 271
283 282 280 279 279 278 279 279 279 279 278 278 278 278 279 278 279 280 279 278 279 278 277 277 276 277 277 277 276 277 276 275 275 274 273 273 273 272 272 272 272 271 271 270
280 280 279 278 278 278 277 277 277 277 277 277 278 278 278 278 277 278 278 278 278 277 276 276 275 275 275 275 274 274 274 274 273 273 273 273 272 272 271 271 271 271 271 271
279 279 278 278 277 276 276 276 276 276 276 276 276 276 277 277 279 276 275 274 274 275 274 274 274 274 274 274 274 274 273 273 272 272 272 272 271 271 271 271 271 270 270 270
280 279 278 278 277 276 276 275 275 275 276 276 275 275 276 276 276 275 274 273 273 274 274 274 274 274 274 274 273 273 272 272 272 272 271 271 271 271 270 270 270 270 270 270
278 277 277 277 276 276 275 275 275 275 275 275 275 274 275 275 274 273 272 272 272 273 273 273 273 273 273 272 272 271 271 271 271 271 271 270 270 270 270 270 270 269 269 269

GFSNGP_850_thetae_099.txt.gz
Theta_e
309 309 308 308 308 312 314 317 320 319 317 318 320 319 317 316 320 321 321 321 320 319 328 330 329 329 328 328 327 321 324 324 323 322 322 321 322 321 321 321 321 321 321 320
310 311 310 309 308 308 309 310 311 312 312 313 315 316 315 321 321 321 322 323 323 322 321 325 330 330 329 329 328 326 322 324 325 324 323 323 323 322 322 320 322 322 322 322
312 311 311 310 309 309 309 309 308 308 310 311 310 316 318 318 317 318 319 320 320 321 321 320 323 330 330 330 329 328 326 323 325 325 324 323 323 322 322 321 321 322 323 323
312 310 312 310 311 310 310 312 312 316 317 316 316 317 316 316 316 317 318 318 318 318 319 320 320 321 330 330 330 329 328 327 324 325 325 325 324 324 324 323 322 322 322 322
311 310 311 310 311 314 315 317 315 315 314 313 314 316 315 314 314 316 317 317 316 317 317 318 319 320 321 325 330 330 329 328 326 324 325 326 325 325 326 324 323 324 323 324
309 310 311 314 313 310 311 318 314 314 314 313 312 313 313 313 314 316 316 316 316 316 315 318 319 321 320 322 330 329 329 328 327 325 324 325 325 325 325 323 324 324 323 319
308 312 312 311 311 311 312 315 314 312 313 312 312 312 312 312 314 315 316 316 315 315 314 314 318 322 322 322 328 330 330 328 327 326 325 325 325 325 325 323 323 319 317 313
308 308 310 310 311 313 313 312 311 313 312 312 311 311 311 314 314 313 314 312 312 313 313 312 314 317 320 320 323 326 328 328 328 327 326 325 324 323 319 319 319 316 313 308
309 308 309 310 311 312 311 310 311 311 311 310 308 310 314 314 312 313 312 311 311 309 310 311 312 313 315 317 317 319 319 321 322 321 319 318 319 319 314 310 308 303 299 297
310 310 311 310 311 312 311 311 311 311 310 309 312 314 312 310 310 311 310 311 310 304 304 307 308 311 312 312 314 315 318 317 315 315 313 311 310 307 306 303 298 296 293 291
312 311 310 310 310 310 310 311 310 309 308 309 310 311 309 308 308 308 307 308 308 301 301 302 303 304 306 306 308 311 313 311 309 306 304 301 299 296 296 294 294 293 291 291
311 310 310 310 309 310 310 310 310 309 306 306 306 307 307 305 305 302 301 303 303 300 298 299 299 299 300 302 303 305 304 299 298 297 296 295 294 292 292 292 291 291 291 292
308 308 308 309 309 310 309 308 308 307 305 304 304 303 302 304 303 297 296 298 298 297 296 296 297 296 295 295 297 299 297 293 291 291 290 289 289 290 288 288 289 288 288 286
308 309 308 308 307 307 308 308 307 307 306 305 303 300 299 299 297 295 295 295 295 294 293 293 294 294 294 294 294 294 294 294 295 295 296 295 294 291 290 289 288 286 284 281
305 305 305 305 305 305 305 306 306 305 304 303 301 299 298 297 295 294 293 292 294 292 293 292 291 289 289 291 293 295 296 294 292 292 291 292 292 290 289 287 284 281 277 277
301 302 302 302 301 302 301 301 302 302 302 300 299 297 296 294 292 290 290 290 291 291 289 291 290 289 290 290 291 291 290 291 290 290 289 288 288 288 286 283 279 278 277 276
297 297 297 297 296 296 297 297 299 301 300 299 297 296 293 291 290 288 288 288 288 288 288 290 289 289 290 291 292 291 290 290 290 289 288 287 285 283 280 279 278 277 276 275
293 293 293 293 293 292 293 294 296 296 297 297 295 293 291 289 288 286 286 286 286 285 286 286 288 288 289 289 289 289 289 287 287 286 284 281 279 277 276 276 276 276 275 275
289 288 289 289 288 289 290 292 293 293 293 292 291 290 288 286 285 285 284 285 285 284 282 284 285 286 286 287 287 287 286 285 283 280 280 279 278 277 276 276 275 275 275 274
286 286 285 285 286 286 287 287 288 289 289 288 287 285 284 283 282 283 283 283 281 280 280 282 283 284 284 283 283 282 281 281 280 279 278 278 277 276 276 275 275 274 274 274
284 283 283 282 282 283 283 284 284 285 284 283 284 282 281 280 281 281 282 281 278 280 281 282 284 285 283 280 279 279 278 278 278 277 277 276 276 275 275 274 273 273 272 272
282 281 280 280 281 281 281 281 281 281 281 280 280 280 280 279 280 280 280 280 278 280 281 281 280 278 278 278 278 278 278 277 276 276 276 275 275 274 274 273 273 272 272 272
281 280 279 279 278 278 278 278 278 278 278 278 278 278 278 278 278 279 278 276 277 277 278 277 277 277 277 277 277 277 277 276 276 275 275 274 273 273 273 273 273 272 272 272
279 279 278 278 278 277 277 277 277 277 277 277 277 278 278 278 277 277 277 276 277 276 276 276 276 276 276 276 276 275 275 275 274 274 273 273 273 273 273 273 272 272 271 271
279 278 278 277 276 276 276 276 276 276 276 276 276 277 277 277 278 275 276 276 275 275 275 275 275 275 275 275 275 275 274 274 274 273 273 273 273 272 272 271 271 271 271 271
279 278 277 277 276 275 275 275 275 275 275 275 275 275 275 276 275 275 275 274 274 273 273 273 273 274 274 274 274 273 273 273 273 272 272 272 272 271 271 271 271 271 271 270
277 277 277 276 276 275 275 275 275 274 275 275 274 274 274 274 274 274 273 273 272 273 273 273 273 273 273 273 273 272 272 272 272 272 272 272 271 271 271 270 270 271 271 270

GFSNGP_850_thetae_102.txt.gz
Theta_e
309 310 310 309 308 309 315 314 315 317 319 320 320 320 320 319 320 318 321 320 320 319 323 322 326 326 325 325 324 319 319 319 320 322 322 321 322 322 322 321 320 319 318 318
310 309 310 311 310 309 310 312 311 310 309 313 317 317 317 317 318 318 319 318 317 317 318 321 322 326 326 326 324 323 321 319 320 320 320 323 323 322 322 321 321 321 320 320
310 310 311 308 309 309 309 310 311 309 316 315 318 317 316 316 316 318 317 316 316 316 316 317 319 321 323 325 326 325 324 323 322 321 322 321 320 321 322 321 321 321 320 320
309 309 310 310 309 309 315 315 313 314 313 315 315 314 313 313 316 316 316 316 315 314 314 315 317 319 321 327 326 326 326 324 323 323 323 323 322 321 321 322 321 321 320 320
307 308 309 308 311 311 314 315 314 314 313 312 313 314 312 315 315 315 315 315 314 314 314 315 315 317 319 320 323 325 328 327 324 324 324 324 324 323 323 323 322 322 321 320
306 308 309 311 312 311 310 316 313 313 313 312 312 311 311 315 314 313 313 314 313 313 313 314 314 314 317 321 322 325 325 325 325 324 324 324 325 324 324 323 322 322 323 322
305 306 310 310 310 310 311 312 313 312 311 311 311 310 314 314 312 312 313 313 313 312 312 311 312 312 315 319 322 326 325 324 324 324 324 325 325 325 325 324 324 323 321 319
304 305 307 309 311 311 312 311 311 311 311 310 309 309 312 312 311 310 312 312 312 311 311 311 311 311 312 314 318 321 323 323 324 324 324 324 325 325 324 324 322 319 314 311
306 306 307 309 310 312 311 310 310 310 309 309 309 312 312 310 308 308 309 308 306 305 306 307 309 309 309 310 311 315 316 319 320 322 323 323 322 323 319 315 313 310 305 299
308 309 310 310 311 311 310 310 310 309 309 307 308 310 308 308 308 308 307 305 303 300 300 302 304 305 305 307 309 311 313 313 314 313 313 312 313 312 311 306 303 299 294 292
311 310 310 310 310 310 310 309 309 308 306 306 305 306 306 308 307 305 305 305 302 298 298 298 300 301 301 302 303 307 309 309 306 307 306 302 301 298 301 297 296 290 291 291
310 309 308 310 309 310 309 308 308 307 305 304 304 303 302 302 303 303 303 302 301 296 296 297 297 298 298 298 298 301 302 302 300 297 297 296 294 292 292 293 293 293 293 294
306 307 307 306 307 308 307 306 306 306 305 305 304 303 302 301 302 302 300 301 299 296 295 295 294 294 295 295 296 298 297 294 295 294 293 292 292 292 289 289 290 291 291 290
303 306 304 302 302 304 305 305 305 304 303 303 302 301 299 298 299 300 298 297 295 295 294 294 293 291 291 291 292 294 294 292 292 291 291 291 291 291 291 289 286 283 285 285
302 302 301 300 302 302 302 302 302 302 300 301 300 300 299 297 297 297 295 294 292 292 291 291 289 288 288 289 288 288 288 289 291 292 291 292 291 289 287 287 285 282 281 279
299 300 299 299 298 299 298 299 300 300 299 299 299 298 297 296 295 293 291 290 289 289 288 289 288 287 287 289 288 288 289 286 288 290 289 289 289 288 287 285 285 281 279 278
296 294 294 293 292 293 294 294 296 297 297 297 297 297 296 294 292 290 288 288 288 287 287 288 287 287 288 290 291 290 290 289 290 289 289 288 288 287 286 280 279 278 277 276
291 290 290 289 289 289 291 293 294 294 295 294 294 294 293 291 289 287 286 286 286 286 286 286 287 288 289 289 290 290 288 287 287 287 287 286 283 280 279 279 278 277 276 275
287 286 287 287 287 287 288 290 291 292 292 292 291 290 288 287 286 285 284 285 285 285 283 284 285 287 287 288 289 288 287 286 286 285 282 279 278 278 278 277 276 275 275 275
285 284 284 284 285 286 286 286 287 288 288 288 288 287 285 283 283 283 283 283 283 282 282 284 285 286 286 286 286 287 287 285 282 280 279 278 277 277 276 276 275 275 275 274
283 283 283 283 283 283 283 283 284 284 284 284 283 283 282 280 281 281 282 282 280 281 282 282 283 284 284 284 282 281 280 280 280 279 278 278 277 276 276 275 274 274 273 273
282 281 281 280 281 281 281 281 281 281 281 281 281 281 280 279 280 280 280 281 278 279 280 281 282 282 282 280 279 278 278 278 277 277 276 276 275 275 274 274 273 273 273 273
280 279 279 278 279 278 278 278 278 279 279 278 278 278 279 279 279 279 279 277 277 278 279 279 278 277 277 277 277 277 277 277 276 276 275 274 274 274 273 273 273 272 272 272
279 278 278 277 277 277 277 277 277 277 277 277 277 277 278 278 278 277 277 277 277 278 278 278 278 277 276 276 276 276 276 275 275 274 274 273 273 273 273 272 272 272 272 271
278 278 277 276 276 276 276 276 276 276 276 276 276 276 276 277 278 275 275 275 276 277 277 276 275 275 275 275 275 275 274 274 273 273 273 273 273 272 272 272 272 271 271 271
278 277 276 276 275 275 275 275 275 275 275 275 275 275 275 275 275 275 275 275 275 275 274 274 274 274 274 274 274 273 273 273 273 272 272 272 272 271 271 271 271 271 271 270
277 277 276 276 275 275 275 275 275 275 275 275 275 274 274 274 274 274 274 274 274 274 273 273 273 273 273 273 272 272 272 272 272 272 271 271 271 271 271 271 270 270 270 270

GFSNGP_850_thetae_108.txt.gz
Theta_e
307 308 310 312 313 310 314 312 312 313 311 312 319 318 317 318 318 318 317 319 316 314 315 318 323 324 325 325 325 324 323 322 320 320 321 321 321 320 319 319 320 319 319 319
307 306 305 311 311 310 311 313 314 312 314 315 315 318 318 320 319 317 317 316 316 316 314 313 316 319 322 324 325 325 325 324 323 321 320 320 320 320 320 320 319 319 320 319
307 307 307 309 310 310 311 311 312 312 314 315 315 317 317 316 316 316 316 315 313 313 316 313 313 313 317 320 323 323 324 325 324 323 322 320 320 320 319 320 320 319 320 319
309 308 304 307 310 309 311 313 311 313 314 313 313 314 316 316 315 314 313 312 310 311 311 311 312 314 316 318 321 321 324 323 324 325 324 322 321 320 320 319 318 320 320 320
308 309 307 309 311 310 311 314 312 314 313 313 315 315 314 312 312 312 311 310 309 309 309 309 310 311 312 314 319 321 321 322 324 324 325 324 323 322 321 321 319 318 319 320
306 307 307 305 307 307 310 314 313 313 313 314 312 313 314 310 309 309 309 309 308 307 307 308 308 309 310 312 313 316 319 320 322 322 323 325 324 323 323 321 322 319 318 318
305 306 307 305 306 307 312 311 312 312 311 312 309 309 311 308 306 306 306 306 305 305 305 304 303 304 306 307 309 309 313 317 320 322 321 324 324 324 323 322 321 321 320 320
301 302 304 304 308 310 309 310 311 311 310 310 311 311 309 307 305 304 305 305 305 305 304 303 303 304 303 304 306 306 308 311 316 319 320 321 323 323 323 322 321 323 323 320
303 302 302 306 309 310 310 308 309 308 312 312 308 306 304 302 303 303 302 302 302 302 302 302 300 300 301 301 302 306 308 309 312 316 318 319 320 321 322 322 321 320 318 317
304 305 306 308 309 309 308 309 309 310 310 307 305 304 301 299 299 300 301 301 300 300 301 301 301 300 300 300 301 301 302 305 309 310 313 313 314 315 315 314 314 315 311 306
306 306 308 308 308 308 306 306 305 304 303 302 302 300 299 297 297 297 298 299 300 300 298 296 296 297 297 299 301 302 300 301 303 304 304 305 305 304 305 304 303 302 299 301
307 304 306 304 304 306 305 304 303 301 301 301 301 301 300 299 297 296 297 297 297 297 297 296 295 295 295 296 296 297 296 295 294 296 297 297 297 296 295 296 296 297 295 294
298 299 298 299 298 300 301 302 302 301 300 299 298 298 298 297 294 294 294 295 296 294 293 293 293 293 293 293 293 293 293 292 292 292 291 291 291 292 289 287 290 290 291 292
297 300 297 296 295 296 299 299 298 298 298 297 296 296 295 294 294 294 294 292 291 292 291 290 290 290 289 289 290 290 290 290 290 290 290 289 287 286 286 287 286 284 286 286
296 295 294 294 296 294 296 297 296 296 295 295 295 294 293 293 294 293 292 290 290 290 289 289 288 288 287 287 288 288 288 288 288 288 288 288 286 286 286 286 286 285 285 285
295 294 292 291 290 290 291 292 292 293 294 294 293 293 292 292 291 289 288 288 288 288 287 288 288 287 287 287 287 287 287 287 287 286 286 287 287 287 287 286 286 286 285 284
292 290 288 286 286 287 288 289 290 291 292 292 292 291 291 290 289 288 286 286 286 285 285 285 285 285 286 287 288 288 287 287 287 286 286 287 287 288 288 287 286 285 284 281
287 286 286 285 285 284 284 287 288 290 290 290 290 290 290 289 288 286 285 284 285 286 286 285 286 287 288 288 288 288 287 287 287 288 287 287 287 287 287 287 284 281 278 277
285 285 284 284 284 285 285 285 286 287 288 288 288 288 288 287 285 284 284 284 285 285 284 285 285 287 287 287 288 287 287 287 287 287 287 287 287 285 282 280 279 278 277 276
283 283 282 282 283 283 283 284 284 285 285 285 285 285 285 284 283 283 283 284 283 283 283 284 284 286 286 286 286 286 287 287 287 287 285 282 280 279 278 278 277 277 276 276
281 281 280 280 280 280 281 281 282 282 282 282 282 282 282 281 281 281 281 282 281 281 282 283 283 284 284 285 285 285 286 285 283 281 279 279 278 278 277 277 276 276 275 274
279 279 278 278 278 279 279 279 279 279 279 280 280 279 279 279 279 280 280 280 279 279 280 281 282 282 283 283 284 281 280 279 279 278 278 277 277 277 276 275 275 274 274 274
278 277 277 277 277 277 277 278 278 277 278 277 277 278 278 278 278 278 279 277 278 278 279 280 280 280 281 280 279 278 278 278 277 277 276 276 276 275 275 274 274 273 273 273
278 277 277 276 276 276 277 276 276 276 276 276 276 276 277 277 277 277 276 276 276 277 278 278 278 278 278 278 277 277 276 276 276 276 275 275 274 274 274 273 273 273 272 272
278 277 276 276 276 275 275 275 275 275 275 276 276 276 276 276 276 275 275 276 276 276 277 276 277 277 276 276 276 276 276 275 275 275 274 274 274 273 273 273 272 272 272 272
277 277 276 276 275 275 274 274 275 275 275 275 275 275 275 274 274 274 275 275 275 276 276 276 276 276 276 276 275 275 274 274 274 274 273 273 273 273 272 272 272 272 271 271
277 276 276 275 275 275 275 275 274 275 274 274 274 273 273 273 274 274 274 274 275 275 275 275 275 275 275 275 274 274 273 273 273 273 272 272 272 272 272 271 271 271 271 270

GFSNGP_850_thetae_111.txt.gz
Theta_e
308 307 310 311 312 312 313 312 310 311 313 320 319 320 319 319 319 318 318 317 316 315 315 315 315 318 321 321 322 322 322 320 320 319 321 321 320 320 320 320 320 320 321 321
308 307 306 307 312 312 310 314 314 314 317 316 317 318 319 318 318 318 317 315 314 314 314 314 313 313 316 320 321 321 322 323 322 322 320 320 320 319 319 319 320 320 319 319
306 307 307 309 311 311 310 310 313 314 317 318 319 319 318 317 316 315 313 311 310 311 312 314 314 313 313 317 321 322 322 323 323 323 322 320 320 320 319 319 319 319 319 319
308 308 308 307 311 310 310 310 312 315 316 316 316 316 315 314 313 311 310 308 308 307 308 309 309 310 308 311 316 320 322 323 323 323 323 323 321 320 320 320 319 319 319 319
307 307 306 310 309 310 310 314 313 315 315 316 314 313 312 309 308 306 308 308 307 306 306 306 308 309 306 309 312 314 318 320 320 321 321 323 324 323 321 319 319 318 319 319
304 307 306 306 306 307 310 315 314 314 315 314 312 315 314 309 308 308 308 307 306 307 306 305 305 305 308 309 309 309 311 315 317 321 320 321 322 323 324 322 320 318 318 318
304 305 305 305 305 308 313 313 313 313 313 312 311 309 307 308 306 305 304 304 304 305 304 303 303 303 305 306 308 308 309 310 314 316 317 318 320 322 322 323 321 319 318 318
304 305 304 304 308 311 310 310 311 311 310 311 307 307 307 303 302 302 303 302 302 302 302 301 301 301 302 303 304 306 307 308 310 313 318 320 321 321 321 321 321 320 318 318
304 304 303 307 308 308 308 309 309 310 310 308 305 301 300 301 301 300 301 301 300 301 300 300 299 298 299 299 301 303 306 307 309 311 315 317 319 320 320 319 319 319 317 315
305 306 306 306 307 306 306 307 309 310 309 306 302 300 299 298 298 299 300 300 299 299 298 298 297 297 296 296 297 300 303 303 305 308 308 310 311 313 313 313 313 312 310 307
304 305 305 301 304 304 303 308 305 304 303 300 299 296 295 295 296 297 298 298 298 297 297 296 295 294 295 295 296 297 299 300 300 301 302 302 303 303 303 304 304 305 301 298
304 298 301 297 298 300 300 300 300 302 299 298 299 298 297 295 293 294 295 296 296 295 295 294 294 293 293 293 293 293 295 296 296 297 297 297 297 297 296 297 297 297 298 298
296 297 295 297 297 297 297 297 299 301 298 297 297 296 295 294 293 293 294 295 296 294 293 292 292 292 292 291 291 291 292 292 293 292 291 291 290 290 290 287 290 291 291 292
296 297 295 293 293 296 295 296 296 296 296 296 294 294 294 293 293 293 293 292 293 292 293 293 292 291 289 289 289 290 290 291 291 291 290 289 288 286 286 285 284 284 285 286
293 292 291 291 292 291 293 293 294 293 293 293 293 293 293 292 293 292 291 290 290 290 291 291 291 291 290 289 289 289 289 289 289 288 288 287 286 286 285 284 284 284 284 285
291 291 288 287 288 288 289 290 290 290 291 291 292 292 292 291 290 290 290 289 289 289 289 289 290 290 289 288 288 288 287 287 287 287 286 286 286 287 286 287 286 286 286 284
288 288 286 286 285 286 285 286 287 288 289 290 290 290 290 290 289 288 288 287 287 287 287 287 288 288 288 287 287 287 286 286 287 287 287 287 287 287 286 286 286 285 284 283
284 283 283 283 283 283 285 286 287 287 287 288 289 288 288 288 287 286 286 285 286 286 286 286 286 286 287 286 286 286 286 286 286 287 287 287 287 287 286 286 286 286 284 280
283 282 282 283 282 281 283 284 285 285 286 286 286 286 286 285 285 284 284 284 284 285 285 285 285 286 286 286 286 287 286 286 287 287 287 287 287 286 285 284 282 279 278 277
282 282 281 281 281 282 282 281 282 282 283 283 283 283 283 283 283 283 283 284 283 283 283 283 283 284 285 285 285 285 286 287 287 287 286 286 285 281 279 279 278 277 277 276
280 280 280 280 280 280 280 281 281 281 281 281 281 281 281 281 281 281 281 282 281 281 281 282 283 284 284 284 284 285 285 286 285 284 282 280 279 278 278 277 277 276 276 275
279 279 278 278 278 278 279 279 279 279 279 279 279 279 279 279 279 280 280 280 280 279 280 281 282 282 283 283 283 283 283 281 280 279 279 278 277 277 276 276 275 275 275 274
279 278 277 277 278 277 277 277 277 277 277 277 277 277 278 278 278 278 279 278 278 278 279 280 280 280 280 281 280 278 278 278 278 277 277 276 276 276 275 275 274 274 274 273
277 276 276 276 275 275 276 276 276 276 276 276 276 276 276 277 277 277 276 276 277 277 278 278 278 278 278 278 278 277 277 276 276 276 276 275 275 275 274 274 274 273 273 273
277 276 276 275 275 275 275 274 274 275 275 275 275 275 275 275 276 275 275 275 275 276 276 276 276 276 276 276 276 276 275 275 275 275 275 274 274 274 273 273 273 272 272 272
276 276 275 275 275 275 275 274 275 275 274 274 274 274 274 274 274 274 274 274 275 275 275 275 275 276 276 276 276 276 275 274 274 274 273 273 273 272 272 272 272 272 272 271
276 276 275 275 275 275 275 275 275 274 274 274 274 273 273 273 273 274 274 274 274 274 274 274 274 274 274 274 274 274 273 273 272 272 272 272 272 272 271 271 271 271 271 271

GFSNGP_850_thetae_114.txt.gz
Theta_e
308 308 308 312 314 313 314 311 312 312 311 316 319 321 322 322 322 321 320 319 317 315 312 310 314 315 316 320 322 322 322 322 320 321 321 321 321 321 321 321 321 321 322 322
306 307 309 309 313 313 313 314 313 312 312 313 319 320 321 321 320 320 317 316 315 313 311 313 312 313 313 314 317 320 322 322 321 323 322 321 320 320 320 321 321 320 321 322
307 307 309 311 313 312 312 313 315 316 315 319 318 320 320 320 319 317 314 312 311 309 307 309 312 311 312 313 313 314 321 321 322 322 322 321 320 320 320 320 320 320 320 320
307 307 311 309 310 311 311 312 314 314 317 319 318 315 315 316 315 313 311 310 309 307 305 305 307 312 312 312 311 312 317 320 320 321 322 322 321 320 319 319 320 320 320 321
306 308 306 309 308 310 312 314 314 315 317 316 315 313 311 309 308 307 306 306 305 304 302 302 304 305 310 310 311 312 315 317 319 320 321 321 322 321 320 320 319 319 319 319
305 305 307 308 307 307 310 317 315 315 317 316 315 318 313 307 306 305 304 303 303 302 300 300 300 300 305 307 307 309 309 313 316 319 321 321 321 321 322 321 320 319 318 318
306 304 304 306 308 309 315 316 313 315 312 312 313 309 306 304 303 303 301 300 301 300 299 297 296 297 299 300 306 304 304 307 310 313 318 319 319 321 321 321 321 321 320 318
306 306 305 306 308 311 310 311 312 312 311 311 308 305 303 302 301 300 300 299 299 298 297 296 296 296 294 299 300 301 303 305 307 309 312 317 318 320 320 321 321 321 320 319
306 306 306 306 307 308 309 310 311 311 311 310 307 305 302 299 298 297 297 297 296 296 295 294 294 295 293 296 297 299 301 302 303 306 308 313 316 318 319 319 320 319 318 317
306 307 305 301 304 305 305 307 308 309 308 306 304 301 300 298 297 296 295 295 295 294 293 292 291 291 293 294 294 298 300 301 301 304 305 307 311 311 312 314 314 314 313 311
304 302 300 298 297 300 301 300 300 301 301 301 300 299 297 296 295 294 293 292 293 292 290 289 290 293 294 293 294 296 297 298 298 300 301 303 304 303 303 303 304 307 306 305
302 297 298 295 295 297 299 297 298 298 297 296 296 296 294 293 292 292 291 290 291 292 290 290 291 291 292 292 293 294 296 296 296 296 296 296 297 297 297 298 298 299 299 299
295 296 294 295 294 295 296 296 296 295 297 295 293 293 292 291 293 293 293 293 292 291 291 291 291 291 290 290 291 292 292 291 291 291 291 292 293 293 292 290 291 292 293 293
294 296 295 292 292 293 294 294 295 292 294 295 292 291 291 292 292 293 292 291 290 291 291 290 289 289 289 289 290 290 290 289 290 289 289 289 288 287 286 286 283 282 284 286
293 291 290 290 291 291 292 293 293 292 292 293 293 291 290 291 292 292 291 290 290 290 290 289 289 288 288 288 289 289 288 288 288 287 287 287 286 284 284 284 284 284 284 285
292 290 289 288 289 289 289 290 291 290 291 292 292 292 291 290 290 291 290 290 290 290 289 288 288 288 287 287 288 288 288 287 285 285 284 284 284 283 283 282 282 283 284 283
290 289 287 286 286 286 286 286 286 287 287 286 288 289 289 289 289 288 288 288 288 288 288 288 287 287 287 286 286 286 287 286 285 283 283 282 282 282 283 284 285 285 284 284
285 284 284 283 283 284 284 284 284 285 286 287 287 288 288 287 286 286 286 286 286 286 287 287 287 287 287 287 286 286 286 285 285 285 284 283 283 283 284 285 284 284 283 282
282 282 281 280 280 281 281 282 283 284 285 285 286 286 286 285 285 284 284 284 284 284 285 286 286 287 287 287 287 286 286 286 286 286 286 285 285 284 284 284 283 282 280 278
280 280 280 280 280 281 282 282 282 282 283 283 283 283 283 283 283 283 282 283 283 283 284 284 285 285 286 286 286 286 286 286 286 285 285 285 285 284 282 279 278 277 277 277
279 279 279 279 279 279 279 279 279 280 281 281 281 281 281 281 281 280 279 279 281 281 282 283 283 284 284 284 284 285 285 285 285 284 284 284 281 279 278 277 277 277 276 276
278 278 278 278 278 278 279 278 278 278 279 279 279 279 279 279 279 279 279 278 279 280 280 281 282 282 283 283 283 283 284 284 283 283 281 279 278 277 276 276 276 275 275 275
278 277 277 277 277 277 277 277 277 277 277 277 277 277 277 277 277 277 277 277 278 278 279 280 280 280 281 281 281 281 280 279 279 278 277 277 276 276 275 275 275 275 274 274
278 277 277 276 276 276 276 276 276 276 276 276 276 276 275 275 274 275 276 276 277 277 278 278 278 278 279 279 278 277 277 277 276 276 276 276 275 275 275 274 274 274 274 273
277 277 277 276 276 275 276 276 275 275 275 275 275 275 276 276 274 275 275 275 276 276 276 276 277 277 277 277 277 277 276 276 275 275 275 275 274 274 274 273 273 273 273 272
276 276 275 276 275 274 274 274 274 273 273 273 273 274 274 275 275 274 275 275 275 275 275 275 275 275 275 275 275 275 274 274 274 274 274 274 273 273 273 273 272 272 272 272
276 275 275 274 273 273 273 273 273 273 272 272 272 272 272 274 274 274 274 274 274 274 275 275 275 275 275 275 275 275 275 275 274 274 274 273 273 272 272 272 272 272 271 271

GFSNGP_850_thetae_117.txt.gz
Theta_e
305 306 308 311 314 311 313 314 314 313 312 317 320 321 323 322 322 321 321 320 318 316 314 312 312 313 315 318 320 322 322 321 321 321 322 324 324 322 322 322 323 323 323 322
306 308 309 313 315 313 311 311 312 312 313 313 316 318 321 322 322 321 319 318 315 314 313 312 312 312 312 313 314 318 321 322 323 321 323 323 323 323 322 322 322 322 322 322
306 307 309 315 313 314 315 315 312 314 314 319 316 315 322 321 320 318 317 315 313 312 310 309 309 311 311 312 312 313 318 322 323 323 321 322 323 322 322 322 322 322 322 322
306 308 314 312 310 313 314 314 314 314 315 317 320 317 316 316 315 314 314 312 310 309 308 307 307 308 309 311 311 312 312 315 319 321 322 322 321 322 321 321 321 321 321 321
307 307 309 310 309 309 311 314 316 315 317 317 314 314 311 310 311 310 310 309 308 306 305 304 304 304 304 309 310 311 310 310 313 315 321 322 322 321 320 320 320 321 321 321
307 306 309 308 308 308 310 316 312 313 317 316 315 317 310 309 308 307 306 306 306 304 303 302 301 302 302 302 307 308 309 309 311 312 317 320 321 321 321 320 320 319 319 319
308 308 306 308 308 309 315 314 311 306 312 312 311 307 306 306 306 305 304 303 304 302 301 299 298 300 300 299 304 305 307 306 305 310 312 316 319 320 321 321 321 320 319 319
308 308 309 307 307 310 309 309 306 308 310 309 308 306 305 303 303 303 303 302 301 301 298 297 296 296 297 296 298 301 305 309 308 309 310 311 315 318 320 321 321 321 320 319
306 307 305 303 303 305 305 306 304 310 312 309 306 304 303 301 301 300 299 299 298 298 297 295 294 293 294 292 294 298 300 302 305 307 309 310 313 316 318 319 319 320 318 318
304 305 302 298 297 298 300 300 301 304 307 306 304 302 301 299 298 298 297 296 296 295 294 293 292 291 291 291 292 296 298 301 302 303 306 308 311 312 312 312 314 315 314 311
303 302 300 299 296 296 296 299 299 300 302 302 301 299 299 297 296 296 295 294 293 293 292 291 290 289 289 289 290 293 294 294 296 298 300 301 304 304 305 305 305 306 306 306
302 297 297 298 295 295 295 295 297 297 298 298 298 297 296 294 292 291 291 290 290 289 288 288 287 288 291 291 291 291 292 292 292 292 294 295 295 296 296 297 298 299 299 300
296 295 296 295 296 294 294 294 294 295 294 295 295 295 293 290 291 291 291 291 289 289 288 287 288 289 290 290 291 290 290 289 289 289 288 288 289 290 290 289 291 292 293 294
295 295 296 293 292 292 294 295 294 294 293 293 293 293 293 290 290 289 290 289 288 288 289 288 288 288 288 287 287 288 289 288 288 287 287 287 286 286 285 285 284 283 285 287
295 294 292 292 293 292 292 293 295 294 292 292 291 291 291 290 288 286 286 286 285 287 288 288 287 287 287 287 287 287 287 287 287 286 285 286 285 284 284 284 283 282 282 283
293 293 292 291 291 291 291 290 291 291 291 290 289 288 288 288 287 285 285 287 287 286 286 286 287 287 286 285 285 285 285 284 284 284 283 283 283 283 283 283 282 282 282 282
291 292 289 288 288 289 288 288 288 287 288 287 286 288 287 286 285 286 286 285 285 285 285 286 285 286 286 284 284 284 284 284 283 283 283 283 282 282 282 282 281 281 281 282
287 286 285 284 284 285 286 285 284 284 283 284 286 286 286 286 285 285 285 284 283 283 284 284 285 285 286 284 283 283 283 283 283 282 282 282 281 281 281 282 282 282 281 281
284 284 283 282 281 282 281 280 280 280 283 284 284 284 284 284 284 284 283 284 282 281 283 283 283 284 285 285 283 283 283 283 283 282 282 282 282 281 281 281 280 279 279 278
282 281 281 280 280 281 279 279 280 279 282 281 281 281 281 282 282 281 281 282 281 281 282 283 282 284 284 284 282 283 283 283 284 283 283 283 282 281 280 279 278 277 277 276
280 279 279 278 278 279 280 279 279 279 280 281 279 280 280 281 281 281 281 281 279 281 281 282 283 282 283 282 283 283 283 283 283 283 283 282 279 278 278 277 276 276 275 275
278 278 278 277 276 275 276 277 277 278 279 279 279 279 279 279 279 279 279 278 277 279 279 281 282 282 282 282 282 282 282 282 282 281 279 278 278 277 276 276 275 274 274 274
278 277 277 277 276 275 275 275 276 275 275 276 276 276 277 276 277 278 278 277 276 278 278 280 280 281 280 281 281 281 281 280 279 278 277 277 276 276 275 274 274 273 273 273
277 276 276 276 276 276 277 275 275 274 275 275 276 277 277 277 276 275 275 275 276 277 278 278 278 279 279 279 278 278 277 277 276 276 275 275 274 274 274 273 273 273 273 273
277 277 277 278 279 278 277 276 277 277 276 275 275 275 274 274 275 274 274 274 275 274 276 276 276 277 276 276 276 276 275 275 274 274 274 274 273 273 273 273 273 273 274 273
278 278 278 276 276 277 277 277 277 276 276 276 275 274 274 274 273 273 273 273 273 274 275 275 275 275 274 274 274 274 274 273 273 273 273 273 273 273 273 273 273 273 273 273
277 277 278 278 277 276 275 275 276 276 275 275 274 274 273 273 273 273 273 272 272 272 273 274 274 274 274 274 273 274 274 274 274 274 274 273 273 273 273 273 273 273 272 272

GFSNGP_850_thetae_120.txt.gz
Theta_e
306 305 306 309 310 313 314 313 315 312 311 312 317 319 322 321 323 322 320 319 318 316 314 312 313 313 315 317 319 321 322 323 323 323 323 323 323 325 324 322 322 323 322 321
307 306 307 307 312 314 313 312 311 313 313 316 316 314 317 316 321 321 318 316 315 314 313 312 311 312 312 313 316 317 319 321 321 322 322 323 323 325 323 322 322 324 322 321
308 306 307 312 312 311 312 315 316 316 315 315 319 318 314 309 314 317 316 314 313 311 310 309 310 309 311 312 312 313 314 317 320 322 323 324 324 324 324 322 321 321 321 322
309 308 311 311 309 308 311 311 313 313 316 317 314 313 314 311 311 312 312 311 309 308 307 306 306 306 306 308 311 311 312 312 313 319 321 320 322 324 322 322 322 322 321 321
308 308 307 310 309 309 309 312 309 312 312 314 312 311 310 310 310 310 309 308 307 305 304 303 304 304 303 302 306 309 311 311 311 310 315 320 321 321 323 322 321 322 321 322
309 309 308 309 307 308 310 314 309 309 310 312 314 310 309 307 307 306 306 306 305 303 301 300 300 302 300 299 301 306 308 308 309 311 310 313 318 320 321 321 322 321 321 321
309 309 310 305 307 308 307 308 307 302 305 305 304 307 306 306 305 304 304 303 303 301 299 297 297 299 298 296 296 298 301 306 307 309 310 310 311 318 321 322 321 322 320 319
307 308 309 301 304 306 305 304 303 301 306 307 305 305 304 303 302 302 301 300 300 299 297 295 295 295 295 294 293 296 299 302 305 307 308 309 310 313 317 320 321 321 321 319
307 306 302 299 298 297 299 300 300 298 305 305 304 303 301 301 300 299 298 297 297 296 295 294 293 292 293 292 292 295 297 299 301 303 306 309 309 311 311 314 317 319 319 319
303 303 300 298 297 296 296 297 298 300 302 302 301 300 299 298 297 296 295 294 294 294 293 291 291 290 289 290 292 296 297 296 298 299 301 302 306 304 305 310 310 309 310 310
303 301 299 299 296 295 295 295 296 298 299 299 299 298 296 294 293 292 292 291 291 290 290 289 288 287 289 291 292 295 295 294 295 294 295 297 300 304 305 306 301 307 306 301
300 298 297 298 296 294 295 294 294 295 296 296 296 295 292 290 288 288 288 287 289 288 288 288 289 289 289 289 291 292 293 294 293 294 294 293 292 292 291 294 296 297 299 301
299 296 296 296 295 293 294 295 294 294 294 294 294 293 291 291 290 290 291 290 289 288 289 289 289 289 288 287 289 290 290 291 291 291 291 290 290 290 289 289 290 291 292 292
296 296 296 293 293 293 293 294 296 294 293 292 292 293 291 289 288 287 287 286 286 287 288 288 288 288 286 286 286 288 288 288 288 288 289 288 289 288 288 287 285 283 284 285
296 296 294 294 293 293 292 292 293 292 292 290 290 290 290 288 287 285 286 285 286 286 286 287 287 286 285 286 286 285 285 286 286 286 286 286 286 285 285 284 283 282 282 282
293 295 293 292 291 291 291 289 290 289 289 288 287 288 288 287 286 286 287 286 287 285 284 284 286 285 285 285 285 285 284 284 284 284 284 284 284 283 283 282 282 282 282 282
291 290 289 288 288 288 289 287 286 286 285 285 285 285 286 286 285 285 284 283 284 285 285 285 284 285 284 284 285 284 284 284 284 284 284 284 283 283 283 283 282 282 282 282
288 287 285 284 284 285 285 284 283 282 282 283 284 284 284 283 282 282 283 284 283 283 284 283 284 284 284 284 284 284 284 284 284 283 283 282 282 283 284 283 283 282 281 280
285 284 283 281 281 281 281 280 281 280 281 281 282 282 282 282 281 281 282 282 281 280 281 281 283 284 283 283 283 284 283 283 284 283 282 282 282 282 282 282 281 280 280 280
282 281 280 279 279 279 278 279 279 279 281 281 281 281 280 281 282 282 281 281 280 279 280 281 282 283 283 283 283 283 283 282 282 282 282 282 281 281 281 281 281 280 280 280
280 280 279 278 278 278 277 277 277 277 277 279 279 279 280 280 280 281 281 279 279 278 278 281 282 282 282 282 282 283 282 282 282 282 282 281 281 280 279 278 278 277 277 277
279 279 278 278 277 277 277 277 277 277 277 277 278 279 280 279 280 279 279 278 277 277 279 280 281 281 280 281 281 281 281 281 281 281 280 280 279 278 278 277 276 276 275 275
279 278 277 277 277 277 277 276 277 277 277 278 278 278 278 277 278 278 277 277 277 278 278 279 279 279 279 279 280 280 280 280 280 279 279 278 277 277 276 276 275 275 275 275
278 278 278 278 278 278 277 277 277 277 276 276 276 277 278 277 276 276 275 275 275 277 277 277 277 277 278 278 278 278 278 278 278 277 277 277 276 276 275 275 274 274 275 275
279 279 279 279 280 279 279 278 278 278 277 277 276 275 275 275 275 274 274 274 274 274 274 275 276 276 276 277 277 276 276 276 276 275 275 275 274 274 274 274 274 274 274 274
279 279 278 278 277 278 278 278 278 277 277 277 276 275 275 275 275 274 274 273 273 273 273 274 274 274 275 275 275 275 275 274 274 274 274 273 273 273 273 273 273 273 273 274
279 279 279 279 278 277 276 276 277 276 276 276 275 275 274 274 274 274 274 273 273 273 273 273 274 274 274 273 274 274 274 274 273 273 273 273 272 272 272 273 273 273 272 272

GFSNGP_850_thetae_123.txt.gz
Theta_e
303 305 305 306 308 311 312 313 313 313 313 315 317 318 318 316 312 318 317 315 314 312 311 311 312 313 315 317 319 321 322 323 324 324 324 324 324 324 323 322 323 321 322 320
305 305 306 307 310 311 312 312 314 314 314 314 314 312 312 310 309 308 315 313 312 311 310 309 309 310 312 313 315 317 320 321 322 322 322 323 322 323 324 323 322 321 323 321
305 306 306 311 310 309 309 309 310 311 314 315 315 312 309 309 309 309 308 309 307 307 307 306 306 306 308 311 312 313 314 316 319 321 322 323 324 324 323 323 322 321 322 321
306 306 308 308 306 306 309 307 306 306 309 313 313 312 312 311 310 310 307 305 304 304 304 304 304 304 304 305 309 311 312 312 313 316 319 322 324 323 324 324 323 321 321 321
307 308 307 305 303 306 306 309 305 305 305 308 310 308 308 308 307 306 305 303 302 302 301 302 301 301 301 302 305 308 309 310 311 311 313 316 319 321 323 323 323 322 322 322
307 309 310 303 302 302 306 309 304 302 304 305 309 307 306 305 305 303 303 302 301 299 299 300 298 298 299 299 300 302 303 306 308 310 311 312 314 318 320 321 323 322 322 321
306 307 307 300 301 302 304 304 301 299 303 300 301 301 301 301 300 300 299 299 299 297 295 296 296 296 296 295 296 297 299 301 305 307 309 310 311 312 317 320 321 322 321 321
305 306 302 298 300 301 299 299 299 297 301 303 301 300 299 299 297 297 297 296 295 294 293 293 294 295 293 292 293 295 297 300 302 304 306 307 309 310 313 315 319 320 322 321
302 303 300 297 297 296 296 296 297 298 299 300 299 298 297 295 294 294 294 293 293 292 292 292 292 292 291 291 293 295 297 299 300 302 303 305 307 308 311 311 308 316 317 318
301 300 299 296 296 295 295 295 295 297 298 298 297 296 294 293 293 292 291 291 291 291 290 290 289 289 290 291 293 295 297 298 298 300 301 302 304 305 307 309 308 309 304 307
300 299 298 298 294 294 295 294 294 295 296 296 295 293 292 290 289 288 288 290 289 289 288 287 288 288 290 291 292 293 294 295 295 297 297 298 299 298 299 299 300 304 303 306
293 297 297 297 295 293 294 295 294 294 294 294 294 292 290 288 288 289 289 288 289 288 287 287 288 288 288 290 291 291 291 291 292 293 293 293 293 295 295 297 298 299 298 300
298 296 296 296 294 293 293 294 294 293 292 292 293 291 291 289 288 286 287 286 286 287 287 287 289 288 286 287 290 290 289 289 289 290 291 290 289 290 289 289 290 291 292 292
297 296 295 294 293 293 292 293 293 292 291 290 291 290 289 288 287 286 285 285 285 287 288 287 288 286 285 286 286 288 288 288 288 287 288 289 289 288 288 288 287 286 285 285
295 295 293 293 292 291 290 290 290 289 289 288 288 288 288 287 286 286 286 286 286 287 286 286 286 285 284 285 285 286 286 286 286 285 285 285 286 286 285 284 283 283 283 283
293 293 291 290 289 289 288 288 287 286 286 286 287 287 286 286 285 285 285 285 286 286 284 285 285 284 285 285 285 285 284 284 285 284 284 284 284 284 283 283 283 283 283 283
290 288 287 287 286 287 285 285 284 284 284 284 284 285 285 285 284 283 283 283 283 285 284 284 284 284 284 285 284 284 284 284 284 284 284 284 283 283 283 283 283 283 283 283
286 285 285 284 284 284 283 283 282 282 282 282 283 283 283 283 282 282 282 282 282 283 284 284 284 284 284 284 284 284 284 284 284 284 284 284 284 283 283 283 283 283 282 282
284 283 282 282 281 281 281 280 280 281 281 281 281 281 282 282 281 281 281 282 282 282 282 282 283 283 283 283 283 283 283 284 284 283 284 284 284 284 284 284 284 283 283 282
282 281 280 280 280 280 279 279 279 279 280 280 280 280 281 281 281 281 280 281 280 279 281 281 282 282 282 283 283 283 283 283 283 283 283 284 283 283 283 282 282 282 282 282
280 279 279 279 279 279 279 279 278 278 279 279 279 280 279 280 280 280 280 280 279 280 280 281 281 282 282 282 282 282 282 282 282 282 282 282 282 281 281 281 281 280 279 278
279 279 278 278 277 278 278 278 278 278 278 278 279 279 279 278 278 278 278 278 278 278 279 280 280 280 280 281 281 281 281 281 281 281 281 281 281 280 279 278 278 278 277 277
279 278 278 278 278 278 277 277 277 277 277 277 278 278 277 277 277 277 277 276 277 277 278 279 279 279 280 280 280 280 280 280 280 280 279 279 279 278 278 277 277 277 277 276
279 279 279 279 278 278 278 278 277 277 276 276 276 277 277 277 276 275 275 275 275 275 276 277 277 278 278 278 279 279 279 279 279 278 278 278 277 277 276 276 276 276 276 275
280 279 278 279 279 279 278 279 277 278 277 276 275 275 275 275 275 274 274 274 274 274 275 275 276 276 277 277 277 277 277 277 277 276 276 276 276 275 275 274 274 274 274 274
279 279 278 278 277 277 277 278 277 277 277 276 275 275 274 274 274 274 274 273 273 273 273 274 274 274 275 275 275 275 275 275 275 275 274 274 274 274 273 273 273 273 273 273
279 279 279 278 277 276 276 276 276 276 276 276 275 274 274 274 274 274 273 273 272 272 273 273 273 274 274 274 274 274 274 274 274 274 274 273 273 273 273 273 273 272 272 272

GFSNGP_850_thetae_126.txt.gz
Theta_e
299 300 302 304 307 307 310 309 310 310 314 313 313 314 312 311 309 309 311 312 311 310 311 310 311 313 315 317 318 320 322 323 324 324 326 326 326 328 327 326 324 323 323 323
301 302 304 306 307 306 309 307 306 306 310 307 311 311 311 310 309 308 306 304 308 307 307 306 306 310 311 312 314 316 318 321 322 322 323 324 325 325 325 324 322 322 322 321
302 302 304 310 305 305 307 305 306 306 306 304 313 312 311 310 309 307 306 304 302 303 304 303 303 303 305 310 312 313 314 316 318 320 321 322 322 323 324 324 324 322 321 320
302 304 304 304 303 302 304 305 304 303 303 304 308 305 305 307 308 305 302 303 302 301 301 300 299 300 301 304 308 311 312 312 313 315 318 320 322 323 323 323 325 323 321 320
307 306 305 302 301 301 302 305 302 301 301 302 305 303 301 300 301 300 298 298 298 299 298 298 298 298 299 301 303 305 307 310 311 311 313 314 317 320 321 323 324 323 322 321
304 306 307 300 300 300 300 305 300 299 301 301 301 301 300 297 296 297 296 295 296 296 296 296 295 296 298 298 299 299 300 302 306 308 311 312 312 316 318 321 322 322 322 322
304 304 302 299 298 298 303 300 298 298 299 300 300 299 297 297 295 295 294 293 294 293 293 292 293 294 293 294 295 295 297 300 301 304 306 309 309 311 313 317 318 321 321 322
301 301 300 297 298 298 297 296 297 297 298 299 298 296 295 294 295 295 294 293 293 293 292 292 292 292 292 293 294 295 296 297 299 301 302 305 307 308 311 313 316 319 320 321
298 299 299 297 296 296 295 295 295 296 298 297 296 295 294 293 292 292 292 292 291 291 291 290 289 290 291 292 294 296 297 298 299 301 301 302 304 307 309 310 309 311 314 315
299 299 298 296 296 294 295 294 295 295 296 295 294 293 291 291 291 290 290 290 289 289 287 287 288 289 290 292 294 296 297 298 298 299 300 302 303 304 305 305 304 306 307 305
298 299 298 296 296 294 295 294 294 294 294 294 293 292 291 289 288 289 288 288 287 285 285 286 287 288 290 291 292 294 295 295 295 296 297 297 299 300 301 300 300 301 303 304
294 297 295 297 294 293 294 294 294 293 293 293 292 290 290 289 287 287 288 288 289 287 287 286 286 287 288 290 291 292 292 292 293 293 293 293 292 293 293 295 296 299 300 300
297 296 295 295 294 293 292 294 293 292 291 291 291 290 289 288 286 287 288 287 288 287 286 286 286 286 286 287 289 291 291 291 291 291 291 291 290 290 289 289 291 292 293 294
296 296 295 293 293 293 291 292 291 290 289 289 289 288 288 287 286 285 285 284 285 286 286 285 285 286 285 285 287 288 288 289 289 289 290 290 289 288 287 287 286 285 284 287
294 296 293 291 291 290 290 289 289 287 287 287 287 287 287 286 285 285 284 284 285 286 285 285 285 285 285 285 285 286 286 287 287 288 287 287 287 287 286 286 285 284 285 287
293 292 291 290 288 287 288 287 286 285 285 285 285 285 285 285 284 284 283 284 286 286 285 285 285 284 285 284 285 285 285 285 286 286 286 286 286 286 286 285 285 285 285 285
291 289 288 287 286 285 285 284 284 284 283 283 283 284 284 284 283 283 282 283 283 284 284 284 284 284 284 284 284 284 284 284 284 285 285 285 285 285 285 286 286 286 286 285
287 286 285 284 283 283 282 282 281 282 282 282 282 282 282 283 282 282 282 282 282 282 284 283 283 283 283 284 284 284 284 284 284 284 284 284 285 285 285 286 286 286 285 285
285 284 283 283 282 281 281 280 281 280 281 281 281 281 281 281 281 281 281 281 282 282 283 283 282 283 283 283 283 283 283 284 284 284 284 284 284 284 284 285 285 285 284 284
283 282 282 281 281 280 280 279 279 280 280 280 280 280 280 280 281 280 280 280 280 280 280 281 282 282 282 282 282 282 283 283 283 284 283 283 284 284 284 283 283 283 283 283
281 281 280 280 279 279 279 278 278 278 279 279 280 280 279 279 279 279 279 279 279 279 280 281 281 282 282 282 282 282 282 282 282 283 283 283 283 283 283 282 282 281 281 280
280 280 279 278 278 278 278 278 277 277 278 278 278 278 278 278 278 278 278 278 278 278 279 280 280 280 281 281 281 281 281 281 281 281 281 281 281 281 281 280 280 279 278 277
279 278 278 278 278 278 277 277 277 277 277 277 277 277 277 277 276 276 277 276 277 278 278 278 279 279 280 280 280 280 280 280 280 280 280 279 279 278 278 277 277 276 276 276
279 279 279 278 278 278 278 278 277 277 277 276 276 276 276 276 275 275 275 275 275 276 277 277 277 278 278 279 279 279 279 279 279 279 278 278 277 277 276 276 275 275 274 274
279 278 278 279 278 278 278 278 277 277 276 276 276 275 275 275 275 274 274 274 274 275 275 276 276 276 277 277 277 277 277 277 277 277 277 276 276 276 275 275 274 274 274 273
279 278 278 277 277 277 277 277 277 277 276 276 275 274 274 274 274 273 273 273 273 274 275 275 275 275 275 275 275 276 276 276 275 275 275 275 274 274 274 274 273 273 272 272
279 279 278 277 276 276 276 276 276 276 275 275 275 274 274 274 273 273 273 272 272 272 273 273 274 274 274 274 274 274 274 274 274 274 274 274 274 273 273 273 272 272 272 272

GFSNGP_850_thetae_129.txt.gz
Theta_e
300 300 299 299 302 305 306 307 307 306 306 308 305 307 311 309 308 306 304 301 302 303 302 306 305 308 311 314 317 319 321 321 323 324 326 326 327 328 328 330 329 328 326 325
300 300 300 301 305 303 307 306 304 303 304 302 305 305 310 310 308 306 302 300 299 300 300 301 301 301 306 309 311 314 317 319 320 322 323 325 326 326 327 326 327 325 324 323
301 301 301 307 302 302 303 304 303 303 303 302 303 302 301 304 303 302 299 297 297 298 299 299 298 299 301 305 308 310 312 314 315 318 320 322 324 324 325 325 326 323 323 322
301 302 300 301 303 300 301 304 300 302 301 301 301 298 297 298 298 296 295 295 295 296 297 296 297 299 298 300 303 306 309 310 311 313 316 318 320 322 323 323 325 324 323 322
304 306 304 303 301 299 300 302 298 300 300 300 300 299 297 295 295 295 294 293 293 294 295 296 297 296 296 298 299 301 302 304 307 309 311 312 315 318 320 321 322 323 323 323
302 304 301 300 300 297 298 301 297 298 298 300 299 299 298 295 293 292 292 292 292 292 293 294 295 294 295 295 295 297 297 299 301 305 307 309 311 312 314 317 319 321 322 322
303 304 300 299 297 297 303 297 297 297 298 298 299 296 295 293 292 292 292 292 292 292 292 292 292 291 292 293 294 295 295 297 299 301 303 306 308 309 310 312 315 318 320 320
299 300 299 297 297 298 297 296 296 296 297 297 295 295 293 291 290 290 290 292 291 289 288 288 290 290 291 293 294 295 296 298 299 300 301 302 304 307 308 310 312 315 316 317
297 297 298 297 296 295 295 295 295 295 295 295 294 293 292 290 289 289 288 290 288 287 288 289 290 290 292 292 294 295 297 298 299 300 301 302 303 305 307 308 308 309 309 309
298 297 298 297 296 295 294 295 294 294 294 294 293 292 291 290 289 288 288 287 287 287 287 288 289 290 291 292 293 294 294 295 295 297 299 301 302 303 304 304 304 304 305 306
297 298 298 297 296 294 294 294 294 293 293 293 292 291 290 289 288 287 288 287 287 287 287 287 288 289 290 291 292 292 292 292 293 294 295 296 297 299 300 300 300 301 301 302
293 297 296 297 296 294 293 294 294 293 292 291 291 290 289 288 287 287 287 286 286 286 286 287 287 287 288 290 291 292 291 291 292 292 291 292 292 292 293 293 296 297 298 299
297 296 296 296 294 293 292 293 292 292 291 290 289 289 289 288 287 286 286 286 285 285 285 286 286 286 287 288 289 291 291 290 290 291 290 290 290 291 291 290 291 293 292 294
296 296 296 294 293 293 291 291 291 290 289 288 288 288 287 287 286 286 286 285 284 285 285 285 285 285 285 286 287 289 288 289 289 289 289 289 289 289 289 290 289 289 289 290
295 296 294 293 292 292 290 289 289 287 286 287 287 286 286 286 285 285 284 284 284 285 285 285 285 285 285 285 285 286 286 286 286 287 287 287 287 287 287 287 287 287 288 288
292 291 290 290 289 289 288 287 286 285 284 284 285 285 285 284 284 284 284 283 284 284 284 284 284 284 284 284 284 284 285 285 285 286 286 285 285 286 286 287 287 287 287 287
291 289 288 287 286 285 285 285 284 283 283 283 283 283 283 283 283 283 283 283 282 282 283 283 283 284 284 284 284 284 284 284 285 285 286 285 285 285 285 286 286 286 286 285
289 287 286 285 284 283 283 282 282 282 282 282 282 282 282 282 282 282 282 281 281 282 282 283 283 283 283 284 284 284 284 284 284 284 285 285 285 285 285 285 285 285 285 284
285 285 284 282 282 281 281 281 281 281 280 281 281 281 281 281 281 281 280 280 281 281 282 282 282 283 282 283 283 283 283 283 284 284 284 284 285 285 285 284 284 284 284 284
284 283 281 281 280 279 279 279 279 279 280 280 280 280 280 280 280 279 279 279 279 279 280 281 281 282 282 282 282 282 283 283 283 284 284 284 283 283 283 283 283 283 282 283
282 281 280 279 279 278 278 278 278 278 278 279 279 279 279 279 278 278 278 278 279 279 279 279 280 281 281 282 282 282 282 282 282 282 282 282 282 282 282 281 281 280 280 279
281 280 279 279 278 278 278 277 277 277 277 278 278 278 278 277 277 277 277 277 277 277 278 279 279 280 280 281 281 281 281 281 281 281 281 281 280 280 280 279 278 278 277 277
280 279 279 278 278 277 277 277 276 276 276 276 277 276 276 276 276 276 276 275 275 276 277 277 278 278 279 279 280 280 280 280 280 279 279 279 279 279 278 277 277 276 276 275
279 279 279 279 278 278 278 278 277 277 276 276 275 275 275 275 275 274 274 274 274 275 276 276 277 277 277 278 278 278 279 279 278 278 278 278 277 277 276 276 275 275 275 275
279 279 279 279 278 278 278 278 277 277 276 276 275 274 274 274 274 274 273 273 273 274 275 275 275 276 276 276 277 277 277 277 277 276 276 276 276 275 275 275 275 274 274 274
279 278 278 278 277 277 277 277 277 276 276 276 275 274 274 274 273 273 273 273 273 273 274 274 274 274 274 275 275 275 275 275 275 275 275 274 274 274 274 273 273 273 273 273
279 279 278 277 277 276 276 276 276 275 275 275 274 274 273 273 273 273 272 272 272 273 273 273 273 273 273 273 273 273 273 273 274 273 273 273 273 273 273 272 272 272 271 271

GFSNGP_850_thetae_132.txt.gz
Theta_e
298 298 298 299 298 303 299 303 306 304 304 304 303 301 303 302 300 299 296 295 295 294 295 296 298 304 306 308 308 312 318 320 321 324 324 327 328 329 329 329 329 328 329 329
299 298 298 300 304 302 302 305 302 303 302 301 300 299 298 298 297 297 296 294 293 293 294 295 295 297 300 303 305 309 313 314 316 319 322 323 324 326 327 327 327 327 328 328
301 300 301 302 302 300 297 301 301 301 302 302 303 299 296 296 296 295 294 292 292 292 293 294 294 294 296 299 302 305 307 311 313 315 317 320 321 324 325 326 326 326 326 326
301 302 299 299 300 300 299 301 299 300 300 299 300 299 296 295 294 293 292 291 291 291 293 294 293 293 295 297 298 301 302 304 307 310 313 315 318 319 322 324 324 324 324 324
301 305 303 300 301 299 299 299 297 297 299 299 298 299 298 294 293 292 290 290 290 290 291 291 291 292 293 295 296 297 298 299 301 304 309 311 313 316 318 319 321 321 322 322
303 304 299 298 299 297 297 300 296 297 297 298 297 297 297 294 292 290 289 290 290 290 290 290 291 291 292 294 295 296 296 297 298 300 302 306 308 310 312 314 317 319 320 320
302 301 300 298 297 297 302 296 296 296 296 297 297 296 294 292 290 289 288 288 289 290 288 289 290 291 293 294 294 295 296 298 298 299 300 301 304 307 308 310 312 314 316 317
299 300 299 297 297 299 295 296 295 295 296 296 295 294 292 290 289 288 287 287 289 289 288 289 290 291 292 293 293 295 296 298 299 299 300 300 302 305 306 308 309 309 311 312
297 296 296 296 296 295 294 295 295 294 295 295 294 292 290 289 289 288 288 287 288 288 288 288 289 289 291 291 293 295 296 297 298 299 300 301 302 302 305 304 304 307 307 307
299 296 297 297 296 296 294 294 294 294 294 294 292 291 290 288 288 287 287 287 288 288 287 287 288 288 290 291 292 293 294 294 294 295 296 298 299 301 302 302 302 303 303 304
297 297 298 297 296 296 294 293 294 294 292 292 291 290 289 288 287 287 287 287 287 287 286 286 286 287 288 290 291 292 293 293 293 292 292 292 292 293 295 296 297 299 300 300
291 295 296 297 296 295 293 293 293 293 291 290 289 289 288 288 287 286 286 286 287 286 286 286 286 286 287 288 290 291 291 292 291 291 290 291 291 290 290 291 293 294 296 297
298 297 296 296 295 293 292 292 292 291 290 289 288 288 287 286 286 286 286 285 285 285 284 285 286 286 286 285 286 288 289 289 289 289 289 289 289 289 288 287 290 292 292 293
297 296 295 295 293 293 292 291 290 289 288 288 287 286 286 285 285 285 285 285 284 284 285 284 285 286 285 285 285 285 286 287 287 287 287 287 287 287 287 287 288 289 289 290
295 295 295 294 293 292 291 289 288 287 286 286 285 285 285 284 284 284 283 283 283 284 284 284 284 285 285 285 284 285 285 285 285 286 286 286 286 287 287 288 287 287 288 289
294 293 292 291 291 290 289 288 286 285 284 282 284 284 283 283 283 283 282 283 283 283 283 283 283 284 284 284 285 284 284 285 285 285 285 285 285 286 286 286 287 287 287 286
291 290 289 289 288 287 286 284 284 283 282 281 282 282 282 282 282 282 281 281 281 281 281 282 283 283 283 284 284 284 284 284 284 285 285 284 285 285 285 286 286 286 286 285
290 288 286 285 285 284 283 282 282 281 281 281 281 281 281 281 281 281 280 280 280 280 281 282 282 282 283 283 283 283 283 284 284 284 284 284 284 284 284 284 284 284 284 284
286 286 285 284 283 282 281 281 281 280 280 280 280 280 280 280 280 279 279 280 280 281 281 281 281 282 282 283 283 283 283 283 284 284 284 283 283 283 283 283 283 283 283 283
284 283 282 282 281 281 280 280 279 279 280 280 279 279 279 279 279 278 278 278 278 278 279 280 280 281 281 282 282 282 282 282 282 283 283 283 283 283 283 282 282 282 282 281
283 282 281 280 280 280 279 279 279 279 279 278 278 278 278 277 277 277 278 278 277 277 278 278 279 280 280 281 281 281 281 281 281 281 281 281 281 281 281 281 280 280 279 279
281 280 279 279 278 278 278 278 278 278 277 278 277 277 277 277 276 276 275 276 276 276 277 278 278 279 279 280 280 280 280 280 280 280 280 280 280 280 279 278 278 277 277 277
280 279 279 278 278 278 277 277 277 277 276 276 276 276 276 275 275 275 276 275 275 275 276 277 277 277 278 278 279 279 279 279 279 279 278 278 278 278 277 277 276 276 275 275
279 279 279 278 278 278 278 278 277 277 276 276 275 275 274 274 274 274 273 273 274 275 275 275 276 276 277 277 277 278 278 278 278 277 277 277 276 276 276 275 275 274 274 274
279 279 279 278 278 278 277 277 277 277 276 275 275 274 274 274 273 273 273 273 273 274 274 274 275 275 275 275 276 276 276 276 276 276 275 275 275 275 274 274 274 274 273 273
279 278 278 277 277 277 277 276 276 276 275 275 274 274 273 273 273 273 272 272 272 273 273 273 274 274 274 274 274 274 274 274 274 274 274 274 274 273 273 273 273 272 272 272
278 278 278 277 276 276 276 275 275 275 275 274 273 273 273 272 272 272 272 272 272 272 272 273 273 273 273 273 273 273 273 273 273 273 273 273 273 272 272 272 272 272 271 271